| time (UTC) | temp C | wind direction | speed KPH | gust KPH | rain 1hr cm | rain 24hr cm | rain mn cm | humidity % | barometer mb |
| 20260507080007 | 10 | 306 | 1.6 | 8.0 | 0.00 | 1.04 | 0.00 | 65 | 1009.8 |
| 20260507075801 | 10 | 5 | 1.6 | 12.9 | 0.00 | 1.04 | 0.00 | 66 | 1009.8 |
| 20260507075702 | 10 | 5 | 0.0 | 12.9 | 0.00 | 1.04 | 0.00 | 64 | 1009.8 |
| 20260507075601 | 10 | 5 | 0.0 | 12.9 | 0.00 | 1.04 | 0.00 | 64 | 1009.8 |
| 20260507075504 | 10 | 5 | 0.0 | 12.9 | 0.00 | 1.04 | 0.00 | 64 | 1009.8 |
| 20260507075401 | 10 | 5 | 4.8 | 12.9 | 0.00 | 1.04 | 0.00 | 64 | 1009.8 |
| 20260507075202 | 10 | 11 | 4.8 | 12.9 | 0.00 | 1.04 | 0.00 | 63 | 1009.8 |
| 20260507075005 | 11 | 12 | 3.2 | 12.9 | 0.00 | 1.04 | 0.00 | 65 | 1009.8 |
| 20260507074901 | 11 | 13 | 3.2 | 12.9 | 0.00 | 1.04 | 0.00 | 65 | 1009.8 |
| 20260507074800 | 11 | 360 | 8.0 | 9.7 | 0.00 | 1.04 | 0.00 | 65 | 1009.8 |
| 20260507074700 | 11 | 242 | 1.6 | 9.7 | 0.00 | 1.04 | 0.00 | 65 | 1009.8 |
| 20260507074601 | 11 | 242 | 3.2 | 9.7 | 0.00 | 1.04 | 0.00 | 65 | 1009.8 |
| 20260507074505 | 11 | 349 | 3.2 | 9.7 | 0.00 | 1.04 | 0.00 | 64 | 1009.8 |
| 20260507074402 | 11 | 5 | 1.6 | 9.7 | 0.00 | 1.04 | 0.00 | 65 | 1009.9 |
| 20260507074301 | 11 | 5 | 3.2 | 9.7 | 0.00 | 1.04 | 0.00 | 64 | 1010.0 |
| 20260507074201 | 11 | 5 | 9.7 | 9.7 | 0.00 | 1.04 | 0.00 | 65 | 1010.0 |
| 20260507074005 | 11 | 327 | 0.0 | 9.7 | 0.00 | 1.04 | 0.00 | 65 | 1010.0 |
| 20260507073802 | 11 | 37 | 6.4 | 9.7 | 0.00 | 1.04 | 0.00 | 65 | 1010.0 |
| 20260507073701 | 11 | 16 | 1.6 | 9.7 | 0.00 | 1.04 | 0.00 | 65 | 1010.0 |
| 20260507073600 | 11 | 360 | 3.2 | 9.7 | 0.00 | 1.04 | 0.00 | 66 | 1010.0 |
| 20260507073505 | 11 | 360 | 3.2 | 9.7 | 0.00 | 1.04 | 0.00 | 67 | 1010.0 |
| 20260507073401 | 11 | 306 | 1.6 | 8.0 | 0.00 | 1.04 | 0.00 | 67 | 1010.0 |
| 20260507073301 | 11 | 306 | 0.0 | 8.0 | 0.00 | 1.04 | 0.00 | 66 | 1010.0 |
| 20260507073100 | 11 | 306 | 0.0 | 8.0 | 0.00 | 1.04 | 0.00 | 66 | 1009.9 |
| 20260507073006 | 11 | 306 | 3.2 | 12.9 | 0.00 | 1.04 | 0.00 | 66 | 1009.9 |
| 20260507072801 | 11 | 277 | 3.2 | 12.9 | 0.00 | 1.04 | 0.00 | 65 | 1009.9 |
| 20260507072700 | 11 | 310 | 6.4 | 12.9 | 0.00 | 1.04 | 0.00 | 66 | 1009.9 |
| 20260507072600 | 11 | 21 | 1.6 | 12.9 | 0.00 | 1.04 | 0.00 | 66 | 1009.8 |
| 20260507072505 | 11 | 21 | 1.6 | 12.9 | 0.00 | 1.04 | 0.00 | 65 | 1009.9 |
| 20260507072301 | 11 | 26 | 4.8 | 12.9 | 0.00 | 1.04 | 0.00 | 66 | 1009.8 |
| 20260507072201 | 11 | 9 | 1.6 | 12.9 | 0.00 | 1.04 | 0.00 | 65 | 1009.8 |
| 20260507072102 | 11 | 9 | 4.8 | 12.9 | 0.00 | 1.04 | 0.00 | 65 | 1009.8 |
| 20260507072005 | 11 | 30 | 9.7 | 9.7 | 0.00 | 1.04 | 0.00 | 67 | 1009.8 |
| 20260507071900 | 11 | 10 | 4.8 | 9.7 | 0.00 | 1.04 | 0.00 | 66 | 1009.8 |
| 20260507071801 | 11 | 300 | 0.0 | 9.7 | 0.00 | 1.04 | 0.00 | 66 | 1009.8 |
| 20260507071702 | 11 | 300 | 1.6 | 9.7 | 0.00 | 1.04 | 0.00 | 65 | 1009.8 |
| 20260507071602 | 11 | 300 | 4.8 | 9.7 | 0.00 | 1.04 | 0.00 | 67 | 1009.7 |
| 20260507071505 | 11 | 300 | 3.2 | 9.7 | 0.00 | 1.04 | 0.00 | 67 | 1009.8 |
| 20260507071400 | 11 | 19 | 1.6 | 9.7 | 0.00 | 1.04 | 0.00 | 66 | 1009.8 |
| 20260507071300 | 11 | 331 | 3.2 | 9.7 | 0.00 | 1.04 | 0.00 | 66 | 1009.8 |
| 20260507071202 | 11 | 5 | 3.2 | 9.7 | 0.00 | 1.04 | 0.00 | 66 | 1009.7 |
| 20260507071100 | 11 | 11 | 8.0 | 11.3 | 0.00 | 1.04 | 0.00 | 67 | 1009.8 |
| 20260507071005 | 11 | 327 | 9.7 | 9.7 | 0.00 | 1.04 | 0.00 | 70 | 1010.0 |
| 20260507070800 | 11 | 21 | 0.0 | 6.4 | 0.00 | 1.04 | 0.00 | 69 | 1010.0 |
| 20260507070701 | 11 | 21 | 1.6 | 6.4 | 0.00 | 1.04 | 0.00 | 69 | 1010.0 |
| 20260507070600 | 11 | 21 | 1.6 | 6.4 | 0.00 | 1.04 | 0.00 | 69 | 1009.9 |
| 20260507070202 | 11 | 22 | 0.0 | 8.0 | 0.00 | 1.04 | 0.00 | 69 | 1009.8 |
| 20260507070101 | 11 | 17 | 1.6 | 8.0 | 0.00 | 1.04 | 0.00 | 69 | 1009.9 |
| 20260507070000 | 11 | 338 | 3.2 | 8.0 | 0.00 | 1.04 | 0.00 | 71 | 1009.9 |
| 20260507065859 | 11 | 338 | 0.0 | 8.0 | 0.00 | 1.04 | 0.00 | 70 | 1009.9 |
| 20260507065700 | 11 | 338 | 0.0 | 8.0 | 0.00 | 1.04 | 0.00 | 69 | 1009.8 |
| 20260507065505 | 11 | 338 | 0.0 | 8.0 | 0.00 | 1.04 | 0.00 | 70 | 1009.8 |
| 20260507065359 | 11 | 338 | 4.8 | 8.0 | 0.00 | 1.04 | 0.00 | 71 | 1009.8 |
| 20260507065301 | 11 | 24 | 4.8 | 8.0 | 0.00 | 1.04 | 0.00 | 72 | 1009.8 |
| 20260507065159 | 11 | 24 | 0.0 | 8.0 | 0.00 | 1.04 | 0.00 | 71 | 1009.8 |
| 20260507065101 | 11 | 24 | 1.6 | 8.0 | 0.00 | 1.04 | 0.00 | 71 | 1009.8 |
| 20260507065005 | 11 | 25 | 0.0 | 8.0 | 0.00 | 1.04 | 0.00 | 72 | 1009.8 |
| 20260507064700 | 11 | 26 | 4.8 | 8.0 | 0.00 | 1.04 | 0.00 | 72 | 1009.8 |
| 20260507064559 | 11 | 308 | 3.2 | 4.8 | 0.00 | 1.04 | 0.00 | 73 | 1009.8 |
| 20260507064400 | 11 | 308 | 1.6 | 8.0 | 0.00 | 1.04 | 0.00 | 72 | 1009.8 |
| 20260507064259 | 11 | 308 | 0.0 | 8.0 | 0.00 | 1.04 | 0.00 | 74 | 1009.7 |
| 20260507064200 | 11 | 308 | 3.2 | 8.0 | 0.00 | 1.04 | 0.00 | 74 | 1009.8 |
| 20260507064059 | 11 | 308 | 1.6 | 8.0 | 0.00 | 1.04 | 0.00 | 75 | 1009.7 |
| 20260507064003 | 11 | 308 | 1.6 | 8.0 | 0.00 | 1.04 | 0.00 | 74 | 1009.6 |
| 20260507063900 | 11 | 308 | 0.0 | 8.0 | 0.00 | 1.04 | 0.00 | 74 | 1009.6 |
| 20260507063803 | 11 | 308 | 3.2 | 8.0 | 0.00 | 1.04 | 0.00 | 74 | 1009.6 |
| 20260507063700 | 11 | 308 | 4.8 | 8.0 | 0.00 | 1.04 | 0.00 | 75 | 1009.7 |
| 20260507063600 | 11 | 317 | 0.0 | 8.0 | 0.00 | 1.04 | 0.00 | 75 | 1009.6 |
| 20260507063505 | 11 | 317 | 3.2 | 8.0 | 0.00 | 1.04 | 0.00 | 76 | 1009.6 |
| 20260507063400 | 11 | 36 | 4.8 | 6.4 | 0.00 | 1.04 | 0.00 | 77 | 1009.6 |
| 20260507063301 | 11 | 37 | 0.0 | 6.4 | 0.00 | 1.04 | 0.00 | 78 | 1009.6 |
| 20260507063200 | 11 | 37 | 0.0 | 6.4 | 0.00 | 1.04 | 0.00 | 77 | 1009.7 |
| 20260507063058 | 11 | 37 | 1.6 | 6.4 | 0.00 | 1.04 | 0.00 | 78 | 1009.7 |
| 20260507062901 | 11 | 37 | 0.0 | 6.4 | 0.00 | 1.04 | 0.00 | 78 | 1009.7 |
| 20260507062800 | 11 | 37 | 1.6 | 6.4 | 0.00 | 1.04 | 0.00 | 79 | 1009.7 |
| 20260507062700 | 11 | 37 | 1.6 | 6.4 | 0.00 | 1.04 | 0.00 | 80 | 1009.7 |
| 20260507062559 | 11 | 37 | 1.6 | 6.4 | 0.00 | 1.04 | 0.00 | 80 | 1009.7 |
| 20260507062504 | 11 | 38 | 0.0 | 6.4 | 0.00 | 1.04 | 0.00 | 80 | 1009.7 |
| 20260507062400 | 11 | 38 | 1.6 | 6.4 | 0.00 | 1.04 | 0.00 | 79 | 1009.7 |
| 20260507062159 | 11 | 38 | 4.8 | 6.4 | 0.00 | 1.04 | 0.00 | 80 | 1009.7 |
| 20260507062100 | 11 | 38 | 4.8 | 6.4 | 0.00 | 1.04 | 0.00 | 80 | 1009.8 |
| 20260507062006 | 11 | 38 | 6.4 | 6.4 | 0.00 | 1.04 | 0.00 | 81 | 1009.8 |
| 20260507061901 | 11 | 228 | 0.0 | 6.4 | 0.00 | 1.04 | 0.00 | 81 | 1009.8 |
| 20260507061800 | 11 | 228 | 0.0 | 6.4 | 0.00 | 1.04 | 0.00 | 80 | 1009.7 |
| 20260507061701 | 11 | 228 | 0.0 | 8.0 | 0.00 | 1.04 | 0.00 | 80 | 1009.7 |
| 20260507061601 | 11 | 228 | 6.4 | 8.0 | 0.00 | 1.04 | 0.00 | 81 | 1009.7 |
| 20260507061504 | 11 | 227 | 0.0 | 8.0 | 0.00 | 1.04 | 0.00 | 80 | 1009.7 |
| 20260507061401 | 11 | 227 | 0.0 | 8.0 | 0.00 | 1.04 | 0.00 | 80 | 1009.7 |
| 20260507061300 | 11 | 227 | 1.6 | 12.9 | 0.00 | 1.04 | 0.00 | 80 | 1009.7 |
| 20260507061005 | 11 | 333 | 3.2 | 12.9 | 0.00 | 1.04 | 0.00 | 80 | 1009.8 |
| 20260507060901 | 11 | 333 | 4.8 | 12.9 | 0.00 | 1.04 | 0.00 | 80 | 1009.7 |
| 20260507060800 | 11 | 319 | 3.2 | 12.9 | 0.00 | 1.04 | 0.00 | 80 | 1009.7 |
| 20260507060700 | 11 | 265 | 1.6 | 12.9 | 0.00 | 1.04 | 0.00 | 80 | 1009.7 |
| 20260507060600 | 11 | 265 | 1.6 | 12.9 | 0.00 | 1.04 | 0.00 | 80 | 1009.7 |
| 20260507060400 | 11 | 345 | 4.8 | 12.9 | 0.00 | 1.04 | 0.00 | 81 | 1009.8 |
| 20260507060300 | 11 | 289 | 3.2 | 9.7 | 0.00 | 1.04 | 0.00 | 82 | 1009.7 |
| 20260507060200 | 11 | 348 | 8.0 | 9.7 | 0.00 | 1.04 | 0.00 | 82 | 1009.8 |
| 20260507060100 | 11 | 339 | 1.6 | 8.0 | 0.00 | 1.04 | 0.00 | 82 | 1009.7 |
| 20260507060006 | 11 | 339 | 1.6 | 8.0 | 0.00 | 1.04 | 0.00 | 82 | 1009.8 |
| 20260507055900 | 11 | 267 | 9.7 | 9.7 | 0.00 | 1.04 | 0.00 | 83 | 1009.8 |
| 20260507055800 | 11 | 290 | 0.0 | 8.0 | 0.00 | 1.04 | 0.00 | 83 | 1009.8 |
| 20260507055701 | 11 | 290 | 4.8 | 8.0 | 0.00 | 1.04 | 0.00 | 83 | 1009.8 |
| 20260507055602 | 11 | 290 | 0.0 | 8.0 | 0.00 | 1.04 | 0.00 | 83 | 1009.8 |
| 20260507055504 | 11 | 317 | 3.2 | 8.0 | 0.00 | 1.04 | 0.00 | 83 | 1009.8 |
| 20260507055401 | 11 | 319 | 3.2 | 8.0 | 0.00 | 1.04 | 0.00 | 83 | 1009.8 |
| 20260507055300 | 11 | 319 | 1.6 | 8.0 | 0.00 | 1.04 | 0.00 | 83 | 1009.8 |
| 20260507055202 | 11 | 317 | 0.0 | 9.7 | 0.00 | 1.04 | 0.00 | 83 | 1009.8 |
| 20260507054901 | 11 | 328 | 3.2 | 9.7 | 0.00 | 1.04 | 0.00 | 85 | 1009.6 |
| 20260507054702 | 11 | 329 | 0.0 | 9.7 | 0.00 | 1.04 | 0.00 | 85 | 1009.7 |
| 20260507054601 | 11 | 329 | 3.2 | 9.7 | 0.00 | 1.04 | 0.00 | 85 | 1009.6 |
| 20260507054506 | 11 | 329 | 0.0 | 9.7 | 0.00 | 1.04 | 0.00 | 85 | 1009.6 |
| 20260507054302 | 11 | 343 | 1.6 | 11.3 | 0.00 | 1.04 | 0.00 | 85 | 1009.7 |
| 20260507054202 | 11 | 33 | 3.2 | 6.4 | 0.00 | 1.04 | 0.00 | 86 | 1009.7 |
| 20260507054103 | 11 | 33 | 0.0 | 8.0 | 0.00 | 1.04 | 0.00 | 86 | 1009.7 |
| 20260507054005 | 11 | 33 | 0.0 | 12.9 | 0.00 | 1.04 | 0.00 | 86 | 1009.7 |
| 20260507053901 | 11 | 33 | 3.2 | 12.9 | 0.00 | 1.04 | 0.00 | 86 | 1009.7 |
| 20260507053801 | 11 | 33 | 0.0 | 12.9 | 0.00 | 1.04 | 0.00 | 86 | 1009.7 |
| 20260507053702 | 11 | 33 | 1.6 | 12.9 | 0.00 | 1.04 | 0.00 | 86 | 1009.7 |
| 20260507053601 | 11 | 33 | 1.6 | 12.9 | 0.00 | 1.04 | 0.00 | 86 | 1009.7 |
| 20260507053506 | 11 | 34 | 0.0 | 12.9 | 0.00 | 1.04 | 0.00 | 86 | 1009.7 |
| 20260507053401 | 11 | 34 | 0.0 | 12.9 | 0.00 | 1.04 | 0.00 | 86 | 1009.7 |
| 20260507053301 | 11 | 34 | 1.6 | 12.9 | 0.00 | 1.04 | 0.00 | 86 | 1009.8 |
| 20260507053202 | 11 | 50 | 4.8 | 12.9 | 0.00 | 1.04 | 0.00 | 86 | 1009.8 |
| 20260507053102 | 11 | 360 | 12.9 | 12.9 | 0.00 | 1.04 | 0.00 | 87 | 1009.8 |
| 20260507053006 | 11 | 166 | 6.4 | 6.4 | 0.00 | 1.04 | 0.00 | 87 | 1009.8 |
| 20260507052900 | 11 | 165 | 3.2 | 6.4 | 0.00 | 1.04 | 0.00 | 87 | 1009.8 |
| 20260507052701 | 11 | 9 | 0.0 | 6.4 | 0.00 | 1.04 | 0.00 | 87 | 1009.7 |
| 20260507052601 | 11 | 5 | 3.2 | 6.4 | 0.00 | 1.04 | 0.00 | 88 | 1009.7 |
| 20260507052505 | 11 | 9 | 1.6 | 6.4 | 0.00 | 1.04 | 0.00 | 88 | 1009.8 |
| 20260507052402 | 11 | 9 | 0.0 | 6.4 | 0.00 | 1.04 | 0.00 | 88 | 1009.8 |
| 20260507052300 | 11 | 9 | 1.6 | 6.4 | 0.00 | 1.04 | 0.00 | 88 | 1009.7 |
| 20260507052201 | 11 | 9 | 1.6 | 6.4 | 0.00 | 1.04 | 0.00 | 88 | 1009.7 |
| 20260507052101 | 11 | 5 | 0.0 | 6.4 | 0.00 | 1.04 | 0.00 | 88 | 1009.7 |
| 20260507052005 | 11 | 9 | 0.0 | 6.4 | 0.00 | 1.04 | 0.00 | 88 | 1009.6 |
| 20260507051901 | 11 | 9 | 0.0 | 6.4 | 0.00 | 1.04 | 0.00 | 88 | 1009.7 |
| 20260507051801 | 11 | 9 | 1.6 | 6.4 | 0.00 | 1.04 | 0.00 | 88 | 1009.7 |
| 20260507051701 | 11 | 9 | 3.2 | 6.4 | 0.00 | 1.04 | 0.00 | 88 | 1009.7 |
| 20260507051402 | 11 | 9 | 3.2 | 9.7 | 0.00 | 1.04 | 0.00 | 89 | 1009.7 |
| 20260507051300 | 11 | 9 | 3.2 | 9.7 | 0.00 | 1.04 | 0.00 | 89 | 1009.8 |
| 20260507051201 | 11 | 9 | 3.2 | 9.7 | 0.00 | 1.04 | 0.00 | 89 | 1009.8 |
| 20260507051101 | 11 | 9 | 1.6 | 9.7 | 0.00 | 1.04 | 0.00 | 89 | 1009.8 |
| 20260507051005 | 11 | 9 | 4.8 | 9.7 | 0.00 | 1.04 | 0.00 | 89 | 1009.8 |
| 20260507050801 | 11 | 9 | 1.6 | 9.7 | 0.00 | 1.04 | 0.00 | 89 | 1009.9 |
| 20260507050700 | 11 | 9 | 6.4 | 9.7 | 0.00 | 1.04 | 0.00 | 89 | 1009.9 |
| 20260507050600 | 11 | 13 | 6.4 | 8.0 | 0.00 | 1.04 | 0.00 | 90 | 1009.8 |
| 20260507050505 | 11 | 30 | 4.8 | 12.9 | 0.00 | 1.04 | 0.00 | 90 | 1009.8 |
| 20260507050402 | 11 | 317 | 3.2 | 12.9 | 0.00 | 1.04 | 0.00 | 89 | 1009.8 |
| 20260507050301 | 11 | 316 | 1.6 | 12.9 | 0.00 | 1.04 | 0.00 | 89 | 1009.7 |
| 20260507050201 | 11 | 315 | 3.2 | 12.9 | 0.00 | 1.04 | 0.00 | 89 | 1009.6 |
| 20260507050100 | 11 | 330 | 4.8 | 12.9 | 0.00 | 1.04 | 0.00 | 90 | 1009.6 |
| 20260507045900 | 11 | 5 | 4.8 | 12.9 | 0.00 | 1.04 | 0.00 | 90 | 1009.6 |
| 20260507045800 | 11 | 5 | 4.8 | 12.9 | 0.00 | 1.04 | 0.00 | 90 | 1009.6 |
| 20260507045659 | 11 | 5 | 3.2 | 12.9 | 0.00 | 1.04 | 0.00 | 90 | 1009.6 |
| 20260507045600 | 11 | 15 | 8.0 | 9.7 | 0.00 | 1.04 | 0.00 | 90 | 1009.6 |
| 20260507045505 | 11 | 14 | 3.2 | 9.7 | 0.00 | 1.04 | 0.00 | 90 | 1009.6 |
| 20260507045300 | 11 | 355 | 1.6 | 8.0 | 0.00 | 1.04 | 0.00 | 89 | 1009.6 |
| 20260507045200 | 11 | 355 | 3.2 | 8.0 | 0.00 | 1.04 | 0.00 | 89 | 1009.7 |
| 20260507045059 | 11 | 360 | 4.8 | 8.0 | 0.00 | 1.04 | 0.00 | 89 | 1009.8 |
| 20260507045005 | 11 | 9 | 4.8 | 8.0 | 0.00 | 1.04 | 0.00 | 89 | 1009.8 |
| 20260507044502 | 11 | 9 | 6.4 | 6.4 | 0.00 | 1.04 | 0.00 | 89 | 1009.9 |
| 20260507044300 | 11 | 334 | 6.4 | 6.4 | 0.00 | 1.04 | 0.00 | 89 | 1009.9 |
| 20260507044005 | 11 | 13 | 1.6 | 9.7 | 0.00 | 1.04 | 0.00 | 89 | 1010.0 |
| 20260507043900 | 11 | 16 | 3.2 | 9.7 | 0.00 | 1.04 | 0.00 | 89 | 1010.0 |
| 20260507043800 | 12 | 16 | 4.8 | 9.7 | 0.00 | 1.04 | 0.00 | 89 | 1010.1 |
| 20260507043659 | 12 | 18 | 3.2 | 14.5 | 0.00 | 1.04 | 0.00 | 89 | 1010.2 |
| 20260507043601 | 12 | 17 | 1.6 | 14.5 | 0.00 | 1.04 | 0.00 | 89 | 1010.2 |
| 20260507043505 | 12 | 17 | 4.8 | 14.5 | 0.00 | 1.04 | 0.00 | 89 | 1010.1 |
| 20260507043400 | 12 | 23 | 3.2 | 14.5 | 0.00 | 1.04 | 0.00 | 89 | 1010.1 |
| 20260507043300 | 12 | 28 | 4.8 | 14.5 | 0.00 | 1.04 | 0.00 | 89 | 1010.0 |
| 20260507043200 | 12 | 5 | 3.2 | 14.5 | 0.00 | 1.04 | 0.00 | 89 | 1009.9 |
| 20260507043059 | 12 | 5 | 3.2 | 14.5 | 0.00 | 1.04 | 0.00 | 89 | 1009.9 |
| 20260507043003 | 12 | 360 | 4.8 | 14.5 | 0.00 | 1.04 | 0.00 | 89 | 1009.9 |
| 20260507042900 | 12 | 20 | 6.4 | 14.5 | 0.00 | 1.04 | 0.00 | 89 | 1009.8 |
| 20260507042801 | 12 | 30 | 6.4 | 14.5 | 0.00 | 1.04 | 0.00 | 89 | 1009.8 |
| 20260507042700 | 12 | 13 | 6.4 | 14.5 | 0.00 | 1.04 | 0.00 | 89 | 1009.8 |
| 20260507042600 | 12 | 13 | 4.8 | 14.5 | 0.00 | 1.04 | 0.00 | 89 | 1009.8 |
| 20260507042505 | 12 | 16 | 4.8 | 14.5 | 0.00 | 1.04 | 0.00 | 89 | 1009.8 |
| 20260507042400 | 12 | 5 | 3.2 | 14.5 | 0.00 | 1.04 | 0.00 | 89 | 1009.8 |
| 20260507042259 | 12 | 360 | 4.8 | 14.5 | 0.00 | 1.04 | 0.00 | 89 | 1009.7 |
| 20260507042201 | 12 | 360 | 3.2 | 14.5 | 0.00 | 1.04 | 0.00 | 89 | 1009.7 |
| 20260507042101 | 12 | 27 | 4.8 | 8.0 | 0.00 | 1.04 | 0.00 | 89 | 1009.8 |
| 20260507042006 | 12 | 5 | 3.2 | 8.0 | 0.00 | 1.04 | 0.00 | 88 | 1009.8 |
| 20260507041900 | 12 | 5 | 3.2 | 8.0 | 0.00 | 1.04 | 0.00 | 89 | 1009.8 |
| 20260507041800 | 12 | 5 | 4.8 | 8.0 | 0.00 | 1.04 | 0.00 | 89 | 1009.8 |
| 20260507041700 | 12 | 9 | 6.4 | 8.0 | 0.00 | 1.04 | 0.00 | 88 | 1009.8 |
| 20260507041600 | 12 | 9 | 8.0 | 8.0 | 0.00 | 1.04 | 0.00 | 88 | 1009.8 |
| 20260507041505 | 12 | 39 | 4.8 | 8.0 | 0.00 | 1.04 | 0.00 | 88 | 1009.8 |
| 20260507041400 | 12 | 39 | 3.2 | 8.0 | 0.00 | 1.04 | 0.00 | 88 | 1009.8 |
| 20260507041300 | 12 | 40 | 3.2 | 9.7 | 0.00 | 1.04 | 0.00 | 88 | 1009.8 |
| 20260507041200 | 12 | 40 | 4.8 | 9.7 | 0.00 | 1.04 | 0.00 | 88 | 1009.8 |
| 20260507041005 | 12 | 42 | 6.4 | 9.7 | 0.00 | 1.04 | 0.00 | 88 | 1009.8 |
| 20260507040900 | 12 | 42 | 3.2 | 9.7 | 0.00 | 1.04 | 0.00 | 88 | 1009.9 |
| 20260507040759 | 12 | 42 | 4.8 | 9.7 | 0.00 | 1.04 | 0.00 | 87 | 1009.9 |
| 20260507040700 | 12 | 44 | 3.2 | 9.7 | 0.00 | 1.04 | 0.00 | 87 | 1010.0 |
| 20260507040559 | 12 | 46 | 6.4 | 9.7 | 0.00 | 1.04 | 0.00 | 87 | 1010.0 |
| 20260507040505 | 12 | 56 | 6.4 | 9.7 | 0.00 | 1.04 | 0.00 | 87 | 1010.0 |
| 20260507040400 | 12 | 77 | 1.6 | 9.7 | 0.00 | 1.04 | 0.00 | 88 | 1009.9 |
| 20260507040300 | 12 | 46 | 9.7 | 9.7 | 0.00 | 1.04 | 0.00 | 88 | 1009.9 |
| 20260507040200 | 12 | 5 | 6.4 | 8.0 | 0.00 | 1.04 | 0.00 | 88 | 1009.9 |
| 20260507040008 | 12 | 24 | 1.6 | 8.0 | 0.00 | 1.04 | 1.04 | 87 | 1009.8 |
| 20260507035901 | 12 | 24 | 1.6 | 8.0 | 0.00 | 1.04 | 1.04 | 87 | 1009.9 |
| 20260507035801 | 12 | 24 | 1.6 | 8.0 | 0.00 | 1.04 | 1.04 | 87 | 1009.9 |
| 20260507035702 | 12 | 24 | 0.0 | 8.0 | 0.00 | 1.04 | 1.04 | 87 | 1009.9 |
| 20260507035603 | 12 | 24 | 3.2 | 8.0 | 0.00 | 1.04 | 1.04 | 87 | 1009.8 |
| 20260507035505 | 12 | 23 | 1.6 | 8.0 | 0.00 | 1.04 | 1.04 | 86 | 1009.8 |
| 20260507035402 | 12 | 23 | 3.2 | 8.0 | 0.00 | 1.04 | 1.04 | 86 | 1009.8 |
| 20260507035306 | 12 | 23 | 3.2 | 8.0 | 0.00 | 1.04 | 1.04 | 86 | 1009.8 |
| 20260507035202 | 12 | 23 | 4.8 | 8.0 | 0.00 | 1.04 | 1.04 | 86 | 1009.9 |
| 20260507035101 | 12 | 5 | 4.8 | 6.4 | 0.00 | 1.04 | 1.04 | 86 | 1009.9 |
| 20260507035006 | 12 | 5 | 0.0 | 6.4 | 0.00 | 1.04 | 1.04 | 86 | 1009.9 |
| 20260507034902 | 12 | 5 | 0.0 | 6.4 | 0.00 | 1.04 | 1.04 | 86 | 1009.9 |
| 20260507034803 | 12 | 5 | 0.0 | 6.4 | 0.00 | 1.04 | 1.04 | 85 | 1009.7 |
| 20260507034702 | 12 | 5 | 0.0 | 6.4 | 0.00 | 1.04 | 1.04 | 85 | 1009.6 |
| 20260507034602 | 12 | 5 | 0.0 | 6.4 | 0.00 | 1.04 | 1.04 | 85 | 1009.5 |
| 20260507034506 | 12 | 5 | 3.2 | 6.4 | 0.00 | 1.04 | 1.04 | 85 | 1009.5 |
| 20260507034403 | 12 | 9 | 3.2 | 6.4 | 0.00 | 1.04 | 1.04 | 85 | 1009.6 |
| 20260507034301 | 12 | 10 | 0.0 | 6.4 | 0.00 | 1.04 | 1.04 | 85 | 1009.6 |
| 20260507034201 | 12 | 11 | 0.0 | 6.4 | 0.00 | 1.04 | 1.04 | 85 | 1009.7 |
| 20260507034102 | 12 | 11 | 3.2 | 6.4 | 0.00 | 1.04 | 1.04 | 85 | 1009.7 |
| 20260507033902 | 12 | 342 | 3.2 | 4.8 | 0.00 | 1.04 | 1.04 | 85 | 1009.6 |
| 20260507033802 | 12 | 342 | 0.0 | 4.8 | 0.00 | 1.04 | 1.04 | 85 | 1009.5 |
| 20260507033702 | 12 | 342 | 1.6 | 4.8 | 0.00 | 1.04 | 1.04 | 85 | 1009.5 |
| 20260507033602 | 12 | 342 | 1.6 | 4.8 | 0.00 | 1.04 | 1.04 | 85 | 1009.4 |
| 20260507033505 | 12 | 342 | 0.0 | 4.8 | 0.00 | 1.04 | 1.04 | 85 | 1009.4 |
| 20260507033403 | 12 | 342 | 0.0 | 4.8 | 0.00 | 1.04 | 1.04 | 85 | 1009.4 |
| 20260507033302 | 12 | 342 | 0.0 | 4.8 | 0.00 | 1.04 | 1.04 | 85 | 1009.4 |
| 20260507033201 | 12 | 342 | 0.0 | 6.4 | 0.00 | 1.04 | 1.04 | 85 | 1009.4 |
| 20260507033101 | 12 | 342 | 0.0 | 6.4 | 0.00 | 1.04 | 1.04 | 85 | 1009.4 |
| 20260507033006 | 12 | 342 | 3.2 | 8.0 | 0.00 | 1.04 | 1.04 | 85 | 1009.5 |
| 20260507032703 | 12 | 342 | 0.0 | 9.7 | 0.00 | 1.04 | 1.04 | 85 | 1009.6 |
| 20260507032603 | 12 | 342 | 1.6 | 9.7 | 0.00 | 1.04 | 1.04 | 85 | 1009.6 |
| 20260507032301 | 12 | 24 | 0.0 | 12.9 | 0.00 | 1.04 | 1.04 | 85 | 1009.3 |
| 20260507032201 | 12 | 24 | 0.0 | 12.9 | 0.00 | 1.04 | 1.04 | 85 | 1009.2 |
| 20260507032102 | 12 | 24 | 1.6 | 12.9 | 0.00 | 1.04 | 1.04 | 84 | 1009.1 |
| 20260507032006 | 12 | 5 | 6.4 | 12.9 | 0.00 | 1.04 | 1.04 | 85 | 1009.1 |
| 20260507031902 | 12 | 19 | 4.8 | 12.9 | 0.00 | 1.04 | 1.04 | 86 | 1009.1 |
| 20260507031802 | 12 | 298 | 1.6 | 12.9 | 0.00 | 1.04 | 1.04 | 85 | 1009.0 |
| 20260507031702 | 12 | 298 | 0.0 | 12.9 | 0.00 | 1.04 | 1.04 | 85 | 1009.1 |
| 20260507031602 | 12 | 5 | 1.6 | 12.9 | 0.00 | 1.04 | 1.04 | 85 | 1009.0 |
| 20260507031507 | 12 | 5 | 3.2 | 12.9 | 0.00 | 1.04 | 1.04 | 84 | 1008.9 |
| 20260507031402 | 12 | 5 | 12.9 | 12.9 | 0.00 | 1.04 | 1.04 | 85 | 1008.8 |
| 20260507031303 | 12 | 290 | 1.6 | 6.4 | 0.00 | 1.04 | 1.04 | 85 | 1008.9 |
| 20260507031203 | 12 | 290 | 1.6 | 6.4 | 0.00 | 1.04 | 1.04 | 85 | 1009.0 |
| 20260507031102 | 12 | 290 | 3.2 | 6.4 | 0.00 | 1.04 | 1.04 | 85 | 1009.0 |
| 20260507031005 | 12 | 290 | 1.6 | 6.4 | 0.00 | 1.04 | 1.04 | 85 | 1009.0 |
| 20260507030903 | 13 | 290 | 4.8 | 6.4 | 0.00 | 1.04 | 1.04 | 85 | 1009.2 |
| 20260507030801 | 13 | 290 | 6.4 | 6.4 | 0.00 | 1.04 | 1.04 | 85 | 1009.2 |
| 20260507030703 | 13 | 289 | 4.8 | 6.4 | 0.00 | 1.04 | 1.04 | 86 | 1009.3 |
| 20260507030602 | 13 | 289 | 0.0 | 6.4 | 0.00 | 1.04 | 1.04 | 86 | 1009.3 |
| 20260507030506 | 13 | 289 | 1.6 | 6.4 | 0.00 | 1.04 | 1.04 | 85 | 1009.4 |
| 20260507030301 | 13 | 289 | 0.0 | 6.4 | 0.00 | 1.04 | 1.04 | 85 | 1009.4 |
| 20260507030202 | 13 | 289 | 1.6 | 9.7 | 0.00 | 1.04 | 1.04 | 85 | 1009.4 |
| 20260507030006 | 13 | 284 | 3.2 | 9.7 | 0.00 | 1.04 | 1.04 | 86 | 1009.2 |
| 20260507025903 | 13 | 278 | 3.2 | 9.7 | 0.00 | 1.04 | 1.04 | 86 | 1009.2 |
| 20260507025802 | 13 | 278 | 3.2 | 9.7 | 0.00 | 1.04 | 1.04 | 86 | 1009.3 |
| 20260507025703 | 13 | 277 | 0.0 | 9.7 | 0.00 | 1.04 | 1.04 | 86 | 1009.4 |
| 20260507025603 | 13 | 355 | 3.2 | 9.7 | 0.00 | 1.04 | 1.04 | 86 | 1009.4 |
| 20260507025506 | 13 | 10 | 3.2 | 9.7 | 0.00 | 1.04 | 1.04 | 86 | 1009.4 |
| 20260507025402 | 13 | 10 | 1.6 | 11.3 | 0.00 | 1.04 | 1.04 | 86 | 1009.4 |
| 20260507025305 | 13 | 10 | 4.8 | 11.3 | 0.00 | 1.04 | 1.04 | 86 | 1009.3 |
| 20260507025202 | 13 | 355 | 4.8 | 11.3 | 0.00 | 1.04 | 1.04 | 86 | 1009.3 |
| 20260507024903 | 13 | 51 | 4.8 | 11.3 | 0.00 | 1.04 | 1.04 | 86 | 1009.3 |
| 20260507024802 | 13 | 5 | 3.2 | 11.3 | 0.00 | 1.04 | 1.04 | 86 | 1009.2 |
| 20260507024702 | 13 | 5 | 3.2 | 11.3 | 0.00 | 1.04 | 1.04 | 86 | 1009.3 |
| 20260507024603 | 13 | 5 | 1.6 | 11.3 | 0.00 | 1.04 | 1.04 | 86 | 1009.3 |
| 20260507024506 | 13 | 26 | 8.0 | 11.3 | 0.00 | 1.04 | 1.04 | 86 | 1009.3 |
| 20260507024402 | 13 | 355 | 4.8 | 12.9 | 0.00 | 1.04 | 1.04 | 86 | 1009.3 |
| 20260507024303 | 13 | 342 | 0.0 | 12.9 | 0.00 | 1.04 | 1.04 | 86 | 1009.4 |
| 20260507024202 | 13 | 342 | 3.2 | 12.9 | 0.00 | 1.04 | 1.04 | 86 | 1009.4 |
| 20260507024103 | 13 | 346 | 8.0 | 12.9 | 0.00 | 1.04 | 1.04 | 85 | 1009.4 |
| 20260507024006 | 13 | 14 | 3.2 | 12.9 | 0.00 | 1.04 | 1.04 | 86 | 1009.4 |
| 20260507023904 | 13 | 14 | 1.6 | 12.9 | 0.00 | 1.04 | 1.04 | 85 | 1009.4 |
| 20260507023802 | 13 | 14 | 3.2 | 12.9 | 0.00 | 1.04 | 1.04 | 86 | 1009.5 |
| 20260507023703 | 13 | 14 | 1.6 | 12.9 | 0.00 | 1.04 | 1.04 | 85 | 1009.4 |
| 20260507023603 | 13 | 14 | 0.0 | 14.5 | 0.00 | 1.04 | 1.04 | 85 | 1009.3 |
| 20260507023506 | 13 | 14 | 3.2 | 14.5 | 0.00 | 1.04 | 1.04 | 85 | 1009.3 |
| 20260507023402 | 13 | 5 | 9.7 | 14.5 | 0.00 | 1.04 | 1.04 | 85 | 1009.4 |
| 20260507023302 | 13 | 333 | 4.8 | 14.5 | 0.00 | 1.04 | 1.04 | 85 | 1009.5 |
| 20260507023201 | 13 | 326 | 6.4 | 14.5 | 0.00 | 1.04 | 1.04 | 85 | 1009.4 |
| 20260507023102 | 13 | 5 | 1.6 | 14.5 | 0.00 | 1.04 | 1.04 | 85 | 1009.4 |
| 20260507023006 | 13 | 5 | 0.0 | 14.5 | 0.00 | 1.04 | 1.04 | 85 | 1009.4 |
| 20260507022902 | 13 | 5 | 1.6 | 14.5 | 0.00 | 1.04 | 1.04 | 85 | 1009.4 |
| 20260507022801 | 13 | 5 | 4.8 | 14.5 | 0.00 | 1.04 | 1.04 | 85 | 1009.3 |
| 20260507022701 | 13 | 5 | 8.0 | 14.5 | 0.00 | 1.04 | 1.04 | 85 | 1009.4 |
| 20260507022602 | 13 | 322 | 3.2 | 9.7 | 0.00 | 1.04 | 1.04 | 85 | 1009.4 |
| 20260507022506 | 13 | 351 | 3.2 | 9.7 | 0.00 | 1.04 | 1.04 | 85 | 1009.4 |
| 20260507022401 | 13 | 318 | 6.4 | 9.7 | 0.00 | 1.04 | 1.04 | 85 | 1009.4 |
| 20260507022306 | 13 | 339 | 1.6 | 9.7 | 0.00 | 1.04 | 1.04 | 85 | 1009.4 |
| 20260507022202 | 13 | 339 | 1.6 | 9.7 | 0.00 | 1.04 | 1.04 | 85 | 1009.4 |
| 20260507022006 | 13 | 339 | 1.6 | 9.7 | 0.00 | 1.04 | 1.04 | 85 | 1009.3 |
| 20260507021903 | 13 | 339 | 1.6 | 9.7 | 0.00 | 1.04 | 1.04 | 85 | 1009.2 |
| 20260507021801 | 13 | 339 | 1.6 | 9.7 | 0.00 | 1.04 | 1.04 | 85 | 1009.2 |
| 20260507021702 | 13 | 339 | 3.2 | 9.7 | 0.00 | 1.04 | 1.04 | 85 | 1009.1 |
| 20260507021603 | 13 | 5 | 9.7 | 12.9 | 0.00 | 1.04 | 1.04 | 85 | 1009.1 |
| 20260507021506 | 13 | 345 | 1.6 | 12.9 | 0.00 | 1.04 | 1.04 | 85 | 1009.2 |
| 20260507021404 | 13 | 345 | 6.4 | 12.9 | 0.00 | 1.04 | 1.04 | 84 | 1009.1 |
| 20260507021302 | 13 | 21 | 8.0 | 12.9 | 0.00 | 1.04 | 1.04 | 84 | 1009.1 |
| 20260507021202 | 13 | 293 | 1.6 | 12.9 | 0.00 | 1.04 | 1.04 | 84 | 1009.0 |
| 20260507021006 | 13 | 26 | 1.6 | 16.1 | 0.00 | 1.04 | 1.04 | 84 | 1009.0 |
| 20260507020902 | 13 | 355 | 4.8 | 16.1 | 0.00 | 1.04 | 1.04 | 84 | 1009.0 |
| 20260507020802 | 13 | 355 | 4.8 | 16.1 | 0.00 | 1.04 | 1.04 | 84 | 1009.0 |
| 20260507020702 | 13 | 355 | 3.2 | 22.5 | 0.00 | 1.04 | 1.04 | 84 | 1009.0 |
| 20260507020603 | 13 | 22 | 12.9 | 22.5 | 0.00 | 1.04 | 1.04 | 84 | 1009.0 |
| 20260507020506 | 13 | 323 | 6.4 | 22.5 | 0.00 | 1.04 | 1.04 | 84 | 1009.0 |
| 20260507020401 | 13 | 315 | 4.8 | 22.5 | 0.00 | 1.04 | 1.04 | 85 | 1009.0 |
| 20260507020302 | 13 | 347 | 4.8 | 22.5 | 0.00 | 1.04 | 1.04 | 85 | 1009.0 |
| 20260507020202 | 13 | 360 | 8.0 | 22.5 | 0.00 | 1.04 | 1.04 | 85 | 1009.0 |
| 20260507020006 | 13 | 347 | 6.4 | 22.5 | 0.00 | 1.04 | 1.04 | 85 | 1009.0 |
| 20260507015903 | 13 | 355 | 9.7 | 22.5 | 0.00 | 1.04 | 1.04 | 86 | 1009.0 |
| 20260507015801 | 13 | 355 | 8.0 | 22.5 | 0.00 | 1.04 | 1.04 | 86 | 1009.0 |
| 20260507015602 | 13 | 331 | 4.8 | 16.1 | 0.00 | 1.04 | 1.04 | 87 | 1009.0 |
| 20260507015507 | 13 | 9 | 4.8 | 16.1 | 0.00 | 1.04 | 1.04 | 87 | 1008.9 |
| 20260507015402 | 13 | 342 | 9.7 | 16.1 | 0.00 | 1.04 | 1.04 | 87 | 1008.9 |
| 20260507015305 | 13 | 9 | 6.4 | 16.1 | 0.00 | 1.04 | 1.04 | 87 | 1009.0 |
| 20260507015203 | 13 | 5 | 9.7 | 16.1 | 0.00 | 1.04 | 1.04 | 87 | 1009.0 |
| 20260507015103 | 13 | 17 | 6.4 | 8.0 | 0.00 | 1.04 | 1.04 | 87 | 1009.1 |
| 20260507015006 | 13 | 315 | 3.2 | 6.4 | 0.00 | 1.04 | 1.04 | 87 | 1009.1 |
| 20260507014902 | 13 | 315 | 1.6 | 4.8 | 0.00 | 1.04 | 1.04 | 87 | 1009.1 |
| 20260507014701 | 13 | 344 | 3.2 | 6.4 | 0.00 | 1.04 | 1.04 | 87 | 1009.1 |
| 20260507014604 | 13 | 346 | 3.2 | 6.4 | 0.00 | 1.04 | 1.04 | 87 | 1009.1 |
| 20260507014506 | 14 | 346 | 3.2 | 6.4 | 0.00 | 1.04 | 1.04 | 87 | 1009.1 |
| 20260507014401 | 14 | 336 | 3.2 | 6.4 | 0.00 | 1.04 | 1.04 | 87 | 1009.1 |
| 20260507014302 | 14 | 292 | 1.6 | 6.4 | 0.00 | 1.04 | 1.04 | 87 | 1009.1 |
| 20260507014202 | 14 | 292 | 0.0 | 6.4 | 0.00 | 1.04 | 1.04 | 87 | 1009.2 |
| 20260507014102 | 14 | 292 | 4.8 | 6.4 | 0.00 | 1.04 | 1.04 | 87 | 1009.2 |
| 20260507013903 | 14 | 46 | 1.6 | 6.4 | 0.00 | 1.04 | 1.04 | 86 | 1009.2 |
| 20260507013802 | 14 | 49 | 4.8 | 4.8 | 0.00 | 1.04 | 1.04 | 86 | 1009.2 |
| 20260507013505 | 14 | 51 | 4.8 | 4.8 | 0.00 | 1.04 | 1.04 | 87 | 1009.2 |
| 20260507013402 | 14 | 317 | 3.2 | 4.8 | 0.00 | 1.04 | 1.04 | 87 | 1009.2 |
| 20260507013303 | 14 | 319 | 1.6 | 4.8 | 0.00 | 1.04 | 1.04 | 87 | 1009.2 |
| 20260507013102 | 14 | 319 | 1.6 | 8.0 | 0.00 | 1.04 | 1.04 | 86 | 1009.2 |
| 20260507013006 | 14 | 323 | 1.6 | 14.5 | 0.00 | 1.04 | 1.04 | 86 | 1009.2 |
| 20260507012802 | 14 | 299 | 0.0 | 14.5 | 0.00 | 1.04 | 1.04 | 86 | 1009.2 |
| 20260507012702 | 14 | 299 | 1.6 | 14.5 | 0.00 | 1.04 | 1.04 | 86 | 1009.1 |
| 20260507012601 | 14 | 299 | 0.0 | 14.5 | 0.00 | 1.04 | 1.04 | 86 | 1009.2 |
| 20260507012506 | 14 | 299 | 3.2 | 14.5 | 0.00 | 1.04 | 1.04 | 86 | 1009.1 |
| 20260507012402 | 14 | 299 | 0.0 | 14.5 | 0.00 | 1.04 | 1.04 | 86 | 1009.1 |
| 20260507012305 | 14 | 299 | 0.0 | 14.5 | 0.00 | 1.04 | 1.04 | 86 | 1009.1 |
| 20260507012203 | 14 | 299 | 3.2 | 14.5 | 0.00 | 1.04 | 1.04 | 86 | 1009.1 |
| 20260507012103 | 14 | 344 | 6.4 | 14.5 | 0.00 | 1.04 | 1.04 | 86 | 1009.1 |
| 20260507012006 | 14 | 11 | 4.8 | 9.7 | 0.00 | 1.04 | 1.04 | 86 | 1009.1 |
| 20260507011903 | 14 | 196 | 3.2 | 6.4 | 0.00 | 1.04 | 1.04 | 86 | 1009.1 |
| 20260507011803 | 14 | 259 | 1.6 | 4.8 | 0.00 | 1.04 | 1.04 | 86 | 1009.1 |
| 20260507011701 | 14 | 259 | 1.6 | 8.0 | 0.00 | 1.04 | 1.04 | 87 | 1009.1 |
| 20260507011602 | 15 | 259 | 3.2 | 8.0 | 0.00 | 1.04 | 1.04 | 87 | 1009.0 |
| 20260507011505 | 15 | 259 | 1.6 | 11.3 | 0.00 | 1.04 | 1.04 | 87 | 1009.0 |
| 20260507011403 | 15 | 259 | 3.2 | 11.3 | 0.00 | 1.04 | 1.04 | 86 | 1009.0 |
| 20260507011302 | 15 | 260 | 1.6 | 11.3 | 0.00 | 1.04 | 1.04 | 86 | 1009.0 |
| 20260507011006 | 15 | 338 | 0.0 | 11.3 | 0.00 | 1.04 | 1.04 | 86 | 1009.0 |
| 20260507010801 | 15 | 338 | 4.8 | 11.3 | 0.00 | 1.04 | 1.04 | 86 | 1009.0 |
| 20260507010602 | 15 | 261 | 4.8 | 11.3 | 0.00 | 1.04 | 1.04 | 86 | 1008.9 |
| 20260507010506 | 15 | 258 | 9.7 | 11.3 | 0.00 | 1.04 | 1.04 | 86 | 1008.9 |
| 20260507010403 | 15 | 300 | 0.0 | 11.3 | 0.00 | 1.04 | 1.04 | 86 | 1008.8 |
| 20260507010301 | 15 | 300 | 0.0 | 11.3 | 0.00 | 1.04 | 1.04 | 86 | 1008.7 |
| 20260507010202 | 15 | 300 | 1.6 | 11.3 | 0.00 | 1.04 | 1.04 | 85 | 1008.6 |
| 20260507005902 | 15 | 334 | 3.2 | 8.0 | 0.00 | 1.04 | 1.04 | 86 | 1008.8 |
| 20260507005803 | 15 | 332 | 3.2 | 8.0 | 0.00 | 1.04 | 1.04 | 85 | 1008.7 |
| 20260507005702 | 15 | 328 | 3.2 | 8.0 | 0.00 | 1.04 | 1.04 | 86 | 1008.6 |
| 20260507005602 | 15 | 282 | 3.2 | 8.0 | 0.00 | 1.04 | 1.04 | 86 | 1008.8 |
| 20260507005506 | 15 | 287 | 4.8 | 12.9 | 0.00 | 1.04 | 1.04 | 86 | 1008.7 |
| 20260507005403 | 15 | 327 | 1.6 | 12.9 | 0.00 | 1.04 | 1.04 | 86 | 1008.8 |
| 20260507005305 | 15 | 333 | 3.2 | 12.9 | 0.00 | 1.04 | 1.04 | 86 | 1008.8 |
| 20260507005203 | 15 | 319 | 6.4 | 12.9 | 0.00 | 1.04 | 1.04 | 86 | 1008.9 |
| 20260507005102 | 15 | 268 | 1.6 | 12.9 | 0.00 | 1.04 | 1.04 | 86 | 1008.8 |
| 20260507005006 | 15 | 285 | 1.6 | 12.9 | 0.00 | 1.04 | 1.04 | 86 | 1008.7 |
| 20260507004903 | 15 | 285 | 9.7 | 12.9 | 0.00 | 1.04 | 1.04 | 87 | 1008.6 |
| 20260507004803 | 15 | 316 | 3.2 | 12.9 | 0.00 | 1.04 | 1.04 | 86 | 1008.5 |
| 20260507004702 | 15 | 315 | 3.2 | 12.9 | 0.00 | 1.04 | 1.04 | 86 | 1008.5 |
| 20260507004505 | 15 | 331 | 6.4 | 8.0 | 0.00 | 1.04 | 1.04 | 86 | 1008.5 |
| 20260507004402 | 15 | 239 | 1.6 | 8.0 | 0.00 | 1.04 | 1.04 | 87 | 1008.5 |
| 20260507004302 | 15 | 257 | 4.8 | 8.0 | 0.00 | 1.04 | 1.04 | 87 | 1008.5 |
| 20260507004202 | 15 | 63 | 1.6 | 8.0 | 0.00 | 1.04 | 1.04 | 87 | 1008.5 |
| 20260507004101 | 15 | 338 | 3.2 | 8.0 | 0.00 | 1.04 | 1.04 | 87 | 1008.5 |
| 20260507003902 | 15 | 296 | 3.2 | 6.4 | 0.00 | 1.04 | 1.04 | 87 | 1008.5 |
| 20260507003802 | 15 | 271 | 1.6 | 6.4 | 0.00 | 1.04 | 1.04 | 87 | 1008.4 |
| 20260507003704 | 15 | 271 | 4.8 | 6.4 | 0.00 | 1.04 | 1.04 | 87 | 1008.5 |
| 20260507003602 | 15 | 281 | 3.2 | 4.8 | 0.00 | 1.04 | 1.04 | 88 | 1008.5 |
| 20260507003505 | 15 | 281 | 1.6 | 4.8 | 0.00 | 1.04 | 1.04 | 88 | 1008.5 |
| 20260507003402 | 15 | 281 | 1.6 | 4.8 | 0.00 | 1.04 | 1.04 | 88 | 1008.5 |
| 20260507003302 | 15 | 281 | 3.2 | 4.8 | 0.00 | 1.04 | 1.04 | 88 | 1008.5 |
| 20260507003102 | 15 | 279 | 3.2 | 6.4 | 0.00 | 1.04 | 1.04 | 88 | 1008.5 |
| 20260507003006 | 15 | 275 | 0.0 | 6.4 | 0.00 | 1.04 | 1.04 | 88 | 1008.4 |
| 20260507002903 | 15 | 275 | 0.0 | 6.4 | 0.00 | 1.04 | 1.04 | 87 | 1008.4 |
| 20260507002802 | 15 | 275 | 0.0 | 6.4 | 0.00 | 1.04 | 1.04 | 87 | 1008.3 |
| 20260507002602 | 15 | 275 | 3.2 | 6.4 | 0.00 | 1.04 | 1.04 | 88 | 1008.3 |
| 20260507002402 | 15 | 275 | 0.0 | 6.4 | 0.00 | 1.04 | 1.04 | 88 | 1008.2 |
| 20260507002305 | 15 | 18 | 0.0 | 6.4 | 0.00 | 1.04 | 1.04 | 88 | 1008.2 |
| 20260507002203 | 15 | 18 | 1.6 | 6.4 | 0.00 | 1.04 | 1.04 | 88 | 1008.1 |
| 20260507002101 | 15 | 329 | 4.8 | 6.4 | 0.00 | 1.04 | 1.04 | 88 | 1008.1 |
| 20260507002005 | 15 | 329 | 0.0 | 6.4 | 0.00 | 1.04 | 1.04 | 88 | 1008.1 |
| 20260507001903 | 15 | 329 | 0.0 | 6.4 | 0.00 | 1.04 | 1.04 | 87 | 1008.1 |
| 20260507001802 | 15 | 329 | 0.0 | 6.4 | 0.00 | 1.04 | 1.04 | 87 | 1008.0 |
| 20260507001703 | 15 | 329 | 0.0 | 8.0 | 0.00 | 1.04 | 1.04 | 87 | 1008.0 |
| 20260507001601 | 15 | 329 | 0.0 | 8.0 | 0.00 | 1.04 | 1.04 | 87 | 1008.0 |
| 20260507001506 | 15 | 329 | 0.0 | 8.0 | 0.00 | 1.04 | 1.04 | 87 | 1008.0 |
| 20260507001402 | 15 | 329 | 0.0 | 8.0 | 0.00 | 1.04 | 1.04 | 87 | 1007.9 |
| 20260507001302 | 15 | 316 | 1.6 | 8.0 | 0.00 | 1.04 | 1.04 | 87 | 1007.9 |
| 20260507001203 | 15 | 315 | 1.6 | 8.0 | 0.00 | 1.04 | 1.04 | 88 | 1007.9 |
| 20260507001103 | 15 | 315 | 0.0 | 8.0 | 0.00 | 1.04 | 1.04 | 88 | 1007.9 |
| 20260507000902 | 15 | 315 | 1.6 | 8.0 | 0.00 | 1.04 | 1.04 | 88 | 1007.8 |
| 20260507000602 | 15 | 321 | 3.2 | 6.4 | 0.00 | 1.04 | 1.04 | 88 | 1007.8 |
| 20260507000402 | 15 | 321 | 1.6 | 8.0 | 0.00 | 1.04 | 1.04 | 88 | 1007.7 |
| 20260507000302 | 15 | 321 | 1.6 | 8.0 | 0.00 | 1.04 | 1.04 | 88 | 1007.7 |
| 20260507000205 | 15 | 324 | 1.6 | 8.0 | 0.00 | 1.04 | 1.04 | 88 | 1007.7 |
| 20260507000005 | 15 | 326 | 3.2 | 8.0 | 0.00 | 1.04 | 1.04 | 88 | 1007.5 |
| 20260506235902 | 15 | 315 | 3.2 | 8.0 | 0.00 | 1.04 | 1.04 | 88 | 1007.4 |
| 20260506235802 | 15 | 344 | 0.0 | 8.0 | 0.00 | 1.04 | 1.04 | 88 | 1007.4 |
| 20260506235602 | 15 | 350 | 3.2 | 8.0 | 0.00 | 1.04 | 1.04 | 88 | 1007.4 |
| 20260506235506 | 15 | 292 | 1.6 | 6.4 | 0.00 | 1.04 | 1.04 | 88 | 1007.4 |
| 20260506235403 | 15 | 249 | 1.6 | 6.4 | 0.00 | 1.04 | 1.04 | 88 | 1007.4 |
| 20260506235301 | 15 | 261 | 1.6 | 6.4 | 0.00 | 1.04 | 1.04 | 89 | 1007.3 |
| 20260506235202 | 15 | 261 | 1.6 | 6.4 | 0.00 | 1.04 | 1.04 | 89 | 1007.3 |
| 20260506235101 | 15 | 13 | 0.0 | 6.4 | 0.00 | 1.04 | 1.04 | 89 | 1007.4 |
| 20260506235006 | 15 | 13 | 3.2 | 6.4 | 0.00 | 1.04 | 1.04 | 89 | 1007.3 |
| 20260506234902 | 15 | 25 | 6.4 | 6.4 | 0.00 | 1.04 | 1.04 | 89 | 1007.3 |
| 20260506234802 | 15 | 336 | 1.6 | 6.4 | 0.00 | 1.04 | 1.04 | 89 | 1007.3 |
| 20260506234702 | 15 | 337 | 1.6 | 6.4 | 0.00 | 1.04 | 1.04 | 89 | 1007.3 |
| 20260506234402 | 15 | 298 | 1.6 | 6.4 | 0.00 | 1.04 | 1.04 | 89 | 1007.3 |
| 20260506234301 | 15 | 298 | 1.6 | 6.4 | 0.00 | 1.04 | 1.04 | 89 | 1007.2 |
| 20260506234201 | 15 | 298 | 1.6 | 6.4 | 0.00 | 1.04 | 1.04 | 89 | 1007.1 |
| 20260506234006 | 15 | 298 | 4.8 | 6.4 | 0.00 | 1.04 | 1.04 | 89 | 1007.0 |
| 20260506233902 | 15 | 5 | 4.8 | 6.4 | 0.00 | 1.04 | 1.04 | 89 | 1007.1 |
| 20260506233801 | 15 | 9 | 0.0 | 6.4 | 0.00 | 1.04 | 1.04 | 90 | 1007.0 |
| 20260506233702 | 15 | 9 | 1.6 | 6.4 | 0.00 | 1.04 | 1.04 | 89 | 1007.0 |
| 20260506233602 | 15 | 24 | 3.2 | 6.4 | 0.00 | 1.04 | 1.04 | 89 | 1007.0 |
| 20260506233505 | 15 | 30 | 4.8 | 6.4 | 0.00 | 1.04 | 1.04 | 89 | 1006.9 |
| 20260506233402 | 15 | 47 | 1.6 | 6.4 | 0.00 | 1.04 | 1.04 | 89 | 1006.9 |
| 20260506232901 | 15 | 322 | 0.0 | 9.7 | 0.00 | 1.04 | 1.04 | 90 | 1006.8 |
| 20260506232802 | 15 | 322 | 1.6 | 9.7 | 0.00 | 1.04 | 1.04 | 90 | 1006.8 |
| 20260506232603 | 15 | 324 | 1.6 | 9.7 | 0.00 | 1.04 | 1.04 | 90 | 1006.8 |
| 20260506232505 | 15 | 325 | 1.6 | 9.7 | 0.00 | 1.04 | 1.04 | 90 | 1006.8 |
| 20260506232201 | 15 | 331 | 3.2 | 9.7 | 0.00 | 1.04 | 1.04 | 90 | 1006.8 |
| 20260506232102 | 15 | 333 | 8.0 | 8.0 | 0.00 | 1.04 | 1.04 | 91 | 1006.8 |
| 20260506232005 | 15 | 279 | 3.2 | 8.0 | 0.00 | 1.04 | 1.04 | 91 | 1006.8 |
| 20260506231902 | 15 | 311 | 1.6 | 8.0 | 0.00 | 1.04 | 1.04 | 91 | 1006.8 |
| 20260506231802 | 15 | 40 | 4.8 | 4.8 | 0.00 | 1.04 | 1.04 | 92 | 1006.7 |
| 20260506231702 | 15 | 40 | 0.0 | 8.0 | 0.00 | 1.04 | 1.04 | 91 | 1006.7 |
| 20260506231601 | 15 | 40 | 1.6 | 8.0 | 0.00 | 1.04 | 1.04 | 92 | 1006.7 |
| 20260506231302 | 16 | 40 | 3.2 | 12.9 | 0.00 | 1.04 | 1.04 | 92 | 1006.8 |
| 20260506231202 | 16 | 40 | 3.2 | 12.9 | 0.00 | 1.04 | 1.04 | 92 | 1006.8 |
| 20260506231102 | 16 | 40 | 0.0 | 12.9 | 0.03 | 1.04 | 1.04 | 92 | 1006.8 |
| 20260506231005 | 16 | 40 | 1.6 | 12.9 | 0.03 | 1.04 | 1.04 | 92 | 1006.8 |
| 20260506230901 | 16 | 342 | 1.6 | 12.9 | 0.03 | 1.04 | 1.04 | 92 | 1006.7 |
| 20260506230802 | 16 | 342 | 1.6 | 12.9 | 0.03 | 1.04 | 1.04 | 92 | 1006.7 |
| 20260506230704 | 16 | 252 | 3.2 | 12.9 | 0.03 | 1.04 | 1.04 | 92 | 1006.7 |
| 20260506230603 | 16 | 247 | 3.2 | 12.9 | 0.03 | 1.04 | 1.04 | 92 | 1006.7 |
| 20260506230505 | 16 | 19 | 1.6 | 12.9 | 0.03 | 1.04 | 1.04 | 92 | 1006.7 |
| 20260506230302 | 16 | 325 | 4.8 | 8.0 | 0.03 | 1.04 | 1.04 | 93 | 1006.7 |
| 20260506230203 | 16 | 325 | 1.6 | 14.5 | 0.05 | 1.04 | 1.04 | 93 | 1006.7 |
| 20260506230005 | 16 | 329 | 4.8 | 14.5 | 0.10 | 1.04 | 1.04 | 93 | 1006.7 |
| 20260506225902 | 16 | 355 | 1.6 | 14.5 | 0.13 | 1.04 | 1.04 | 93 | 1006.7 |
| 20260506225802 | 16 | 303 | 6.4 | 14.5 | 0.13 | 1.04 | 1.04 | 93 | 1006.7 |
| 20260506225603 | 16 | 33 | 0.0 | 14.5 | 0.15 | 1.04 | 1.04 | 93 | 1006.7 |
| 20260506225506 | 16 | 321 | 3.2 | 14.5 | 0.20 | 1.04 | 1.04 | 94 | 1006.7 |
| 20260506225402 | 16 | 346 | 1.6 | 14.5 | 0.20 | 1.04 | 1.04 | 94 | 1006.7 |
| 20260506225301 | 16 | 258 | 4.8 | 9.7 | 0.20 | 1.04 | 1.04 | 94 | 1006.7 |
| 20260506225005 | 16 | 257 | 1.6 | 9.7 | 0.25 | 1.04 | 1.04 | 95 | 1006.7 |
| 20260506224902 | 16 | 330 | 1.6 | 9.7 | 0.25 | 1.04 | 1.04 | 95 | 1006.7 |
| 20260506224702 | 16 | 336 | 1.6 | 9.7 | 0.25 | 1.04 | 1.04 | 95 | 1006.6 |
| 20260506224507 | 16 | 355 | 6.4 | 9.7 | 0.25 | 1.04 | 1.04 | 95 | 1006.6 |
| 20260506224401 | 16 | 360 | 1.6 | 9.7 | 0.25 | 1.04 | 1.04 | 95 | 1006.5 |
| 20260506224201 | 16 | 360 | 1.6 | 9.7 | 0.25 | 1.04 | 1.04 | 95 | 1006.6 |
| 20260506224103 | 16 | 355 | 1.6 | 9.7 | 0.25 | 1.04 | 1.04 | 95 | 1006.6 |
| 20260506224006 | 16 | 355 | 3.2 | 9.7 | 0.25 | 1.04 | 1.04 | 95 | 1006.5 |
| 20260506223802 | 16 | 15 | 6.4 | 9.7 | 0.25 | 1.04 | 1.04 | 95 | 1006.5 |
| 20260506223601 | 16 | 323 | 3.2 | 8.0 | 0.25 | 1.04 | 1.04 | 95 | 1006.5 |
| 20260506223505 | 17 | 322 | 4.8 | 9.7 | 0.25 | 1.04 | 1.04 | 95 | 1006.4 |
| 20260506223402 | 17 | 322 | 1.6 | 9.7 | 0.25 | 1.04 | 1.04 | 95 | 1006.4 |
| 20260506223302 | 17 | 308 | 3.2 | 9.7 | 0.25 | 1.04 | 1.04 | 95 | 1006.4 |
| 20260506223202 | 17 | 58 | 3.2 | 9.7 | 0.25 | 1.04 | 1.04 | 95 | 1006.4 |
| 20260506223102 | 17 | 58 | 3.2 | 9.7 | 0.25 | 1.04 | 1.04 | 95 | 1006.3 |
| 20260506223005 | 17 | 329 | 3.2 | 9.7 | 0.25 | 1.04 | 1.04 | 95 | 1006.4 |
| 20260506222801 | 17 | 318 | 6.4 | 9.7 | 0.25 | 1.04 | 1.04 | 95 | 1006.4 |
| 20260506222603 | 17 | 21 | 3.2 | 9.7 | 0.25 | 1.04 | 1.04 | 94 | 1006.4 |
| 20260506222505 | 17 | 330 | 3.2 | 4.8 | 0.25 | 1.04 | 1.04 | 94 | 1006.4 |
| 20260506222402 | 17 | 330 | 3.2 | 4.8 | 0.25 | 1.04 | 1.04 | 94 | 1006.4 |
| 20260506222305 | 17 | 192 | 4.8 | 4.8 | 0.25 | 1.04 | 1.04 | 94 | 1006.3 |
| 20260506222103 | 17 | 192 | 0.0 | 1.6 | 0.25 | 1.04 | 1.04 | 94 | 1006.2 |
| 20260506222006 | 17 | 192 | 0.0 | 1.6 | 0.25 | 1.04 | 1.04 | 94 | 1006.2 |
| 20260506221902 | 17 | 192 | 0.0 | 1.6 | 0.25 | 1.04 | 1.04 | 94 | 1006.2 |
| 20260506221802 | 17 | 192 | 0.0 | 1.6 | 0.25 | 1.04 | 1.04 | 94 | 1006.2 |
| 20260506221702 | 17 | 192 | 0.0 | 1.6 | 0.25 | 1.04 | 1.04 | 95 | 1006.1 |
| 20260506221602 | 17 | 192 | 0.0 | 1.6 | 0.25 | 1.04 | 1.04 | 95 | 1006.1 |
| 20260506221505 | 17 | 192 | 0.0 | 1.6 | 0.25 | 1.04 | 1.04 | 95 | 1006.2 |
| 20260506221202 | 17 | 192 | 0.0 | 0.0 | 0.25 | 1.04 | 1.04 | 95 | 1006.2 |
| 20260506221102 | 17 | 192 | 0.0 | 1.6 | 0.23 | 1.02 | 1.02 | 95 | 1006.2 |
| 20260506221005 | 17 | 192 | 0.0 | 1.6 | 0.23 | 1.02 | 1.02 | 95 | 1006.1 |
| 20260506220903 | 17 | 192 | 0.0 | 3.2 | 0.23 | 1.02 | 1.02 | 95 | 1006.1 |
| 20260506220802 | 17 | 192 | 0.0 | 3.2 | 0.23 | 1.02 | 1.02 | 95 | 1006.2 |
| 20260506220506 | 17 | 192 | 0.0 | 3.2 | 0.23 | 1.02 | 1.02 | 95 | 1006.0 |
| 20260506220401 | 17 | 192 | 0.0 | 3.2 | 0.23 | 1.02 | 1.02 | 95 | 1006.0 |
| 20260506220303 | 17 | 192 | 0.0 | 3.2 | 0.23 | 1.02 | 1.02 | 95 | 1006.0 |
| 20260506220202 | 17 | 192 | 0.0 | 3.2 | 0.20 | 0.99 | 0.99 | 95 | 1006.0 |
| 20260506220005 | 17 | 192 | 1.6 | 3.2 | 0.15 | 0.94 | 0.94 | 95 | 1006.0 |
| 20260506215901 | 17 | 192 | 1.6 | 3.2 | 0.13 | 0.91 | 0.91 | 95 | 1005.9 |
| 20260506215801 | 18 | 192 | 1.6 | 3.2 | 0.10 | 0.89 | 0.89 | 95 | 1005.9 |
| 20260506215703 | 18 | 192 | 3.2 | 4.8 | 0.10 | 0.89 | 0.89 | 95 | 1005.9 |
| 20260506215600 | 18 | 192 | 3.2 | 4.8 | 0.05 | 0.84 | 0.84 | 94 | 1006.0 |
| 20260506215505 | 18 | 192 | 3.2 | 4.8 | 0.05 | 0.84 | 0.84 | 94 | 1006.0 |
| 20260506215401 | 18 | 192 | 1.6 | 4.8 | 0.05 | 0.84 | 0.84 | 94 | 1006.0 |
| 20260506215301 | 18 | 192 | 0.0 | 4.8 | 0.05 | 0.84 | 0.84 | 94 | 1005.8 |
| 20260506215202 | 18 | 192 | 0.0 | 4.8 | 0.05 | 0.84 | 0.84 | 94 | 1005.7 |
| 20260506215101 | 18 | 192 | 0.0 | 4.8 | 0.00 | 0.79 | 0.79 | 94 | 1005.8 |
| 20260506215006 | 18 | 192 | 1.6 | 4.8 | 0.00 | 0.79 | 0.79 | 94 | 1005.7 |
| 20260506214901 | 18 | 192 | 0.0 | 4.8 | 0.00 | 0.79 | 0.79 | 94 | 1005.7 |
| 20260506214701 | 18 | 192 | 4.8 | 4.8 | 0.00 | 0.79 | 0.79 | 94 | 1005.7 |
| 20260506214601 | 18 | 192 | 0.0 | 3.2 | 0.00 | 0.79 | 0.79 | 94 | 1005.7 |
| 20260506214505 | 18 | 192 | 0.0 | 3.2 | 0.00 | 0.79 | 0.79 | 94 | 1005.6 |
| 20260506214401 | 18 | 192 | 0.0 | 3.2 | 0.00 | 0.79 | 0.79 | 94 | 1005.5 |
| 20260506214301 | 18 | 192 | 0.0 | 3.2 | 0.00 | 0.79 | 0.79 | 94 | 1005.5 |
| 20260506214201 | 18 | 192 | 0.0 | 3.2 | 0.00 | 0.79 | 0.79 | 94 | 1005.5 |
| 20260506214101 | 18 | 192 | 0.0 | 3.2 | 0.00 | 0.79 | 0.79 | 94 | 1005.5 |
| 20260506214005 | 18 | 192 | 0.0 | 3.2 | 0.00 | 0.79 | 0.79 | 94 | 1005.5 |
| 20260506213900 | 18 | 192 | 0.0 | 3.2 | 0.00 | 0.79 | 0.79 | 94 | 1005.5 |
| 20260506213802 | 18 | 192 | 0.0 | 3.2 | 0.00 | 0.79 | 0.79 | 94 | 1005.5 |
| 20260506213600 | 18 | 192 | 0.0 | 3.2 | 0.00 | 0.79 | 0.79 | 94 | 1005.5 |
| 20260506213505 | 18 | 192 | 0.0 | 3.2 | 0.00 | 0.79 | 0.79 | 94 | 1005.4 |
| 20260506213401 | 18 | 192 | 3.2 | 3.2 | 0.00 | 0.79 | 0.79 | 94 | 1005.4 |
| 20260506213301 | 18 | 192 | 0.0 | 3.2 | 0.00 | 0.79 | 0.79 | 94 | 1005.4 |
| 20260506213101 | 18 | 192 | 0.0 | 3.2 | 0.00 | 0.79 | 0.79 | 94 | 1005.4 |
| 20260506213005 | 18 | 192 | 0.0 | 3.2 | 0.00 | 0.79 | 0.79 | 94 | 1005.4 |
| 20260506212901 | 18 | 192 | 1.6 | 4.8 | 0.00 | 0.79 | 0.79 | 94 | 1005.4 |
| 20260506212700 | 18 | 192 | 0.0 | 4.8 | 0.00 | 0.79 | 0.79 | 94 | 1005.3 |
| 20260506212602 | 18 | 192 | 0.0 | 4.8 | 0.00 | 0.79 | 0.79 | 94 | 1005.3 |
| 20260506212506 | 18 | 192 | 0.0 | 4.8 | 0.00 | 0.79 | 0.79 | 94 | 1005.3 |
| 20260506212402 | 18 | 192 | 0.0 | 4.8 | 0.00 | 0.79 | 0.79 | 94 | 1005.3 |
| 20260506212301 | 18 | 192 | 0.0 | 4.8 | 0.00 | 0.79 | 0.79 | 94 | 1005.3 |
| 20260506212201 | 18 | 192 | 0.0 | 4.8 | 0.00 | 0.79 | 0.79 | 94 | 1005.2 |
| 20260506212102 | 18 | 192 | 0.0 | 4.8 | 0.00 | 0.79 | 0.79 | 94 | 1005.2 |
| 20260506212005 | 18 | 192 | 3.2 | 4.8 | 0.00 | 0.79 | 0.79 | 94 | 1005.2 |
| 20260506211801 | 18 | 192 | 1.6 | 4.8 | 0.00 | 0.79 | 0.79 | 94 | 1005.2 |
| 20260506211702 | 18 | 192 | 4.8 | 4.8 | 0.00 | 0.79 | 0.79 | 94 | 1005.2 |
| 20260506211601 | 18 | 190 | 1.6 | 3.2 | 0.00 | 0.79 | 0.79 | 94 | 1005.2 |
| 20260506211505 | 18 | 187 | 0.0 | 0.0 | 0.00 | 0.79 | 0.79 | 94 | 1005.2 |
| 20260506211400 | 18 | 187 | 0.0 | 0.0 | 0.00 | 0.79 | 0.79 | 94 | 1005.2 |
| 20260506211300 | 18 | 187 | 0.0 | 0.0 | 0.00 | 0.79 | 0.79 | 94 | 1005.1 |
| 20260506211200 | 18 | 187 | 0.0 | 0.0 | 0.00 | 0.79 | 0.79 | 94 | 1005.1 |
| 20260506211100 | 18 | 187 | 0.0 | 0.0 | 0.00 | 0.79 | 0.79 | 94 | 1005.1 |
| 20260506211005 | 18 | 187 | 0.0 | 0.0 | 0.00 | 0.79 | 0.79 | 95 | 1005.2 |
| 20260506210902 | 18 | 187 | 0.0 | 0.0 | 0.00 | 0.79 | 0.79 | 95 | 1005.2 |
| 20260506210600 | 18 | 187 | 0.0 | 0.0 | 0.00 | 0.79 | 0.79 | 94 | 1005.2 |
| 20260506210507 | 18 | 187 | 0.0 | 0.0 | 0.00 | 0.79 | 0.79 | 94 | 1005.2 |
| 20260506210401 | 18 | 187 | 0.0 | 0.0 | 0.00 | 0.79 | 0.79 | 95 | 1005.2 |
| 20260506210301 | 18 | 187 | 0.0 | 0.0 | 0.00 | 0.79 | 0.79 | 95 | 1005.3 |
| 20260506210201 | 18 | 187 | 0.0 | 0.0 | 0.00 | 0.79 | 0.79 | 94 | 1005.2 |
| 20260506210101 | 18 | 187 | 0.0 | 0.0 | 0.00 | 0.79 | 0.79 | 94 | 1005.3 |
| 20260506210005 | 18 | 187 | 0.0 | 0.0 | 0.00 | 0.79 | 0.79 | 94 | 1005.3 |
| 20260506205901 | 18 | 187 | 0.0 | 0.0 | 0.00 | 0.79 | 0.79 | 94 | 1005.3 |
| 20260506205800 | 18 | 187 | 0.0 | 0.0 | 0.00 | 0.79 | 0.79 | 94 | 1005.2 |
| 20260506205600 | 18 | 187 | 0.0 | 0.0 | 0.00 | 0.79 | 0.79 | 94 | 1005.2 |
| 20260506205505 | 18 | 187 | 0.0 | 0.0 | 0.00 | 0.79 | 0.79 | 94 | 1005.2 |
| 20260506205402 | 18 | 187 | 0.0 | 0.0 | 0.00 | 0.79 | 0.79 | 94 | 1005.2 |
| 20260506205305 | 18 | 187 | 0.0 | 0.0 | 0.00 | 0.79 | 0.79 | 94 | 1005.2 |
| 20260506205201 | 18 | 187 | 0.0 | 0.0 | 0.00 | 0.79 | 0.79 | 94 | 1005.2 |
| 20260506205102 | 18 | 187 | 0.0 | 1.6 | 0.00 | 0.79 | 0.79 | 94 | 1005.3 |
| 20260506205006 | 18 | 187 | 0.0 | 3.2 | 0.00 | 0.79 | 0.79 | 94 | 1005.3 |
| 20260506204902 | 18 | 187 | 0.0 | 3.2 | 0.00 | 0.79 | 0.79 | 94 | 1005.3 |
| 20260506204801 | 18 | 187 | 0.0 | 3.2 | 0.00 | 0.79 | 0.79 | 94 | 1005.3 |
| 20260506204401 | 18 | 187 | 0.0 | 3.2 | 0.00 | 0.79 | 0.79 | 94 | 1005.3 |
| 20260506204302 | 18 | 187 | 0.0 | 3.2 | 0.00 | 0.79 | 0.79 | 94 | 1005.3 |
| 20260506204200 | 18 | 187 | 0.0 | 3.2 | 0.00 | 0.79 | 0.79 | 94 | 1005.3 |
| 20260506204101 | 18 | 187 | 1.6 | 3.2 | 0.00 | 0.79 | 0.79 | 94 | 1005.3 |
| 20260506204005 | 18 | 187 | 0.0 | 1.6 | 0.00 | 0.79 | 0.79 | 94 | 1005.2 |
| 20260506203900 | 18 | 187 | 0.0 | 1.6 | 0.00 | 0.79 | 0.79 | 94 | 1005.3 |
| 20260506203801 | 18 | 187 | 1.6 | 1.6 | 0.00 | 0.79 | 0.79 | 94 | 1005.3 |
| 20260506203702 | 18 | 187 | 0.0 | 1.6 | 0.00 | 0.79 | 0.79 | 94 | 1005.2 |
| 20260506203601 | 18 | 187 | 0.0 | 3.2 | 0.00 | 0.79 | 0.79 | 94 | 1005.2 |
| 20260506203505 | 18 | 187 | 0.0 | 4.8 | 0.00 | 0.79 | 0.79 | 94 | 1005.2 |
| 20260506203400 | 18 | 187 | 0.0 | 4.8 | 0.00 | 0.79 | 0.79 | 94 | 1005.2 |
| 20260506203301 | 18 | 187 | 0.0 | 4.8 | 0.00 | 0.79 | 0.79 | 94 | 1005.2 |
| 20260506203201 | 18 | 187 | 0.0 | 4.8 | 0.00 | 0.79 | 0.79 | 94 | 1005.2 |
| 20260506203101 | 18 | 187 | 0.0 | 4.8 | 0.00 | 0.79 | 0.79 | 94 | 1005.2 |
| 20260506203005 | 18 | 187 | 0.0 | 4.8 | 0.00 | 0.79 | 0.79 | 94 | 1005.2 |
| 20260506202901 | 18 | 187 | 0.0 | 4.8 | 0.00 | 0.79 | 0.79 | 94 | 1005.2 |
| 20260506202801 | 18 | 187 | 0.0 | 4.8 | 0.00 | 0.79 | 0.79 | 94 | 1005.2 |
| 20260506202702 | 18 | 187 | 0.0 | 4.8 | 0.00 | 0.79 | 0.79 | 94 | 1005.1 |
| 20260506202601 | 18 | 187 | 0.0 | 4.8 | 0.00 | 0.79 | 0.79 | 94 | 1005.2 |
| 20260506202505 | 18 | 187 | 0.0 | 4.8 | 0.00 | 0.79 | 0.79 | 94 | 1005.2 |
| 20260506202401 | 18 | 187 | 0.0 | 4.8 | 0.00 | 0.79 | 0.79 | 94 | 1005.2 |
| 20260506202301 | 18 | 187 | 0.0 | 4.8 | 0.00 | 0.79 | 0.79 | 94 | 1005.2 |
| 20260506202201 | 18 | 187 | 0.0 | 6.4 | 0.00 | 0.79 | 0.79 | 94 | 1005.2 |
| 20260506202101 | 18 | 187 | 1.6 | 6.4 | 0.00 | 0.79 | 0.79 | 94 | 1005.2 |
| 20260506202005 | 18 | 187 | 1.6 | 6.4 | 0.00 | 0.79 | 0.79 | 94 | 1005.2 |
| 20260506201901 | 18 | 187 | 1.6 | 6.4 | 0.00 | 0.79 | 0.79 | 94 | 1005.2 |
| 20260506201801 | 18 | 187 | 0.0 | 6.4 | 0.00 | 0.79 | 0.79 | 94 | 1005.2 |
| 20260506201701 | 18 | 187 | 3.2 | 6.4 | 0.00 | 0.79 | 0.79 | 93 | 1005.2 |
| 20260506201602 | 18 | 187 | 1.6 | 6.4 | 0.00 | 0.79 | 0.79 | 94 | 1005.2 |
| 20260506201505 | 18 | 187 | 0.0 | 6.4 | 0.00 | 0.79 | 0.79 | 94 | 1005.2 |
| 20260506201401 | 18 | 187 | 1.6 | 6.4 | 0.00 | 0.79 | 0.79 | 94 | 1005.1 |
| 20260506201301 | 18 | 187 | 4.8 | 6.4 | 0.00 | 0.79 | 0.79 | 94 | 1005.1 |
| 20260506201202 | 18 | 188 | 0.0 | 6.4 | 0.00 | 0.79 | 0.79 | 94 | 1005.1 |
| 20260506201100 | 18 | 188 | 0.0 | 6.4 | 0.00 | 0.79 | 0.79 | 94 | 1005.1 |
| 20260506201005 | 18 | 188 | 0.0 | 6.4 | 0.00 | 0.79 | 0.79 | 94 | 1005.1 |
| 20260506200901 | 18 | 188 | 3.2 | 6.4 | 0.00 | 0.79 | 0.79 | 94 | 1005.1 |
| 20260506200801 | 18 | 187 | 3.2 | 6.4 | 0.00 | 0.79 | 0.79 | 94 | 1005.1 |
| 20260506200700 | 18 | 187 | 0.0 | 6.4 | 0.00 | 0.79 | 0.79 | 94 | 1005.1 |
| 20260506200601 | 18 | 187 | 1.6 | 6.4 | 0.00 | 0.79 | 0.79 | 94 | 1005.1 |
| 20260506200505 | 18 | 216 | 4.8 | 6.4 | 0.00 | 0.79 | 0.79 | 94 | 1005.1 |
| 20260506200401 | 18 | 240 | 0.0 | 6.4 | 0.00 | 0.79 | 0.79 | 94 | 1005.1 |
| 20260506200202 | 18 | 240 | 1.6 | 6.4 | 0.00 | 0.79 | 0.79 | 94 | 1005.1 |
| 20260506200101 | 18 | 239 | 4.8 | 6.4 | 0.00 | 0.79 | 0.79 | 95 | 1005.2 |
| 20260506200007 | 18 | 239 | 1.6 | 6.4 | 0.00 | 0.79 | 0.79 | 95 | 1005.2 |
| 20260506195901 | 18 | 239 | 6.4 | 6.4 | 0.00 | 0.79 | 0.79 | 95 | 1005.1 |
| 20260506195803 | 18 | 238 | 0.0 | 4.8 | 0.00 | 0.79 | 0.79 | 95 | 1005.1 |
| 20260506195602 | 18 | 238 | 1.6 | 4.8 | 0.00 | 0.79 | 0.79 | 95 | 1005.2 |
| 20260506195505 | 18 | 238 | 1.6 | 4.8 | 0.00 | 0.79 | 0.79 | 95 | 1005.2 |
| 20260506195401 | 18 | 238 | 0.0 | 4.8 | 0.00 | 0.79 | 0.79 | 95 | 1005.3 |
| 20260506195305 | 18 | 238 | 0.0 | 4.8 | 0.00 | 0.79 | 0.79 | 95 | 1005.3 |
| 20260506195201 | 18 | 238 | 0.0 | 4.8 | 0.00 | 0.79 | 0.79 | 95 | 1005.2 |
| 20260506194803 | 18 | 238 | 0.0 | 6.4 | 0.00 | 0.79 | 0.79 | 95 | 1005.3 |
| 20260506194702 | 18 | 238 | 0.0 | 6.4 | 0.00 | 0.79 | 0.79 | 95 | 1005.3 |
| 20260506194601 | 18 | 238 | 0.0 | 6.4 | 0.00 | 0.79 | 0.79 | 95 | 1005.3 |
| 20260506194505 | 18 | 238 | 0.0 | 6.4 | 0.00 | 0.79 | 0.79 | 95 | 1005.3 |
| 20260506194403 | 17 | 238 | 0.0 | 6.4 | 0.00 | 0.79 | 0.79 | 95 | 1005.4 |
| 20260506194301 | 17 | 238 | 0.0 | 6.4 | 0.00 | 0.79 | 0.79 | 95 | 1005.4 |
| 20260506194203 | 17 | 238 | 1.6 | 6.4 | 0.00 | 0.79 | 0.79 | 95 | 1005.4 |
| 20260506194102 | 17 | 238 | 1.6 | 6.4 | 0.00 | 0.79 | 0.79 | 95 | 1005.4 |
| 20260506194005 | 17 | 238 | 0.0 | 6.4 | 0.00 | 0.79 | 0.79 | 95 | 1005.4 |
| 20260506193903 | 17 | 238 | 3.2 | 6.4 | 0.00 | 0.79 | 0.79 | 95 | 1005.4 |
| 20260506193802 | 17 | 237 | 0.0 | 4.8 | 0.00 | 0.79 | 0.79 | 95 | 1005.4 |
| 20260506193702 | 17 | 237 | 0.0 | 4.8 | 0.00 | 0.79 | 0.79 | 95 | 1005.4 |
| 20260506193601 | 17 | 237 | 0.0 | 4.8 | 0.00 | 0.79 | 0.79 | 95 | 1005.4 |
| 20260506193505 | 17 | 237 | 0.0 | 4.8 | 0.00 | 0.79 | 0.79 | 95 | 1005.4 |
| 20260506193403 | 17 | 237 | 0.0 | 4.8 | 0.00 | 0.79 | 0.79 | 95 | 1005.4 |
| 20260506193302 | 17 | 237 | 1.6 | 4.8 | 0.00 | 0.79 | 0.79 | 95 | 1005.5 |
| 20260506193101 | 17 | 237 | 0.0 | 4.8 | 0.00 | 0.79 | 0.79 | 95 | 1005.5 |
| 20260506193005 | 17 | 237 | 1.6 | 4.8 | 0.00 | 0.79 | 0.79 | 95 | 1005.5 |
| 20260506192902 | 17 | 237 | 3.2 | 4.8 | 0.00 | 0.79 | 0.79 | 95 | 1005.5 |
| 20260506192801 | 17 | 237 | 0.0 | 3.2 | 0.00 | 0.79 | 0.79 | 95 | 1005.5 |
| 20260506192601 | 17 | 237 | 0.0 | 3.2 | 0.00 | 0.79 | 0.79 | 94 | 1005.6 |
| 20260506192505 | 17 | 237 | 1.6 | 3.2 | 0.00 | 0.79 | 0.79 | 94 | 1005.5 |
| 20260506192202 | 17 | 237 | 0.0 | 3.2 | 0.00 | 0.79 | 0.79 | 95 | 1005.5 |
| 20260506192101 | 17 | 237 | 0.0 | 3.2 | 0.00 | 0.79 | 0.79 | 95 | 1005.5 |
| 20260506192005 | 17 | 237 | 0.0 | 3.2 | 0.00 | 0.79 | 0.79 | 95 | 1005.5 |
| 20260506191902 | 17 | 237 | 0.0 | 3.2 | 0.00 | 0.79 | 0.79 | 95 | 1005.5 |
| 20260506191802 | 17 | 237 | 0.0 | 3.2 | 0.00 | 0.79 | 0.79 | 95 | 1005.6 |
| 20260506191702 | 17 | 237 | 0.0 | 3.2 | 0.00 | 0.79 | 0.79 | 95 | 1005.6 |
| 20260506191603 | 17 | 237 | 1.6 | 3.2 | 0.00 | 0.79 | 0.79 | 95 | 1005.6 |
| 20260506191505 | 17 | 237 | 1.6 | 4.8 | 0.00 | 0.79 | 0.79 | 95 | 1005.6 |
| 20260506191302 | 17 | 237 | 1.6 | 4.8 | 0.00 | 0.79 | 0.79 | 95 | 1005.5 |
| 20260506191202 | 17 | 237 | 1.6 | 4.8 | 0.00 | 0.79 | 0.79 | 95 | 1005.5 |
| 20260506191102 | 17 | 237 | 0.0 | 4.8 | 0.00 | 0.79 | 0.79 | 95 | 1005.6 |
| 20260506190801 | 17 | 237 | 0.0 | 4.8 | 0.00 | 0.79 | 0.79 | 95 | 1005.7 |
| 20260506190603 | 17 | 237 | 0.0 | 4.8 | 0.00 | 0.79 | 0.79 | 95 | 1005.7 |
| 20260506190505 | 17 | 237 | 3.2 | 6.4 | 0.00 | 0.79 | 0.79 | 95 | 1005.6 |
| 20260506190402 | 17 | 237 | 1.6 | 6.4 | 0.00 | 0.79 | 0.79 | 94 | 1005.6 |
| 20260506190302 | 17 | 237 | 1.6 | 6.4 | 0.00 | 0.79 | 0.79 | 94 | 1005.6 |
| 20260506190202 | 17 | 237 | 0.0 | 6.4 | 0.00 | 0.79 | 0.79 | 94 | 1005.6 |
| 20260506190007 | 17 | 237 | 3.2 | 6.4 | 0.00 | 0.79 | 0.79 | 94 | 1005.6 |
| 20260506185902 | 17 | 237 | 0.0 | 6.4 | 0.00 | 0.79 | 0.79 | 94 | 1005.6 |
| 20260506185801 | 17 | 237 | 1.6 | 6.4 | 0.00 | 0.79 | 0.79 | 94 | 1005.6 |
| 20260506185602 | 17 | 238 | 4.8 | 4.8 | 0.00 | 0.79 | 0.79 | 94 | 1005.7 |
| 20260506185506 | 17 | 236 | 0.0 | 3.2 | 0.00 | 0.79 | 0.79 | 93 | 1005.7 |
| 20260506185306 | 17 | 236 | 1.6 | 3.2 | 0.00 | 0.79 | 0.79 | 93 | 1005.7 |
| 20260506185203 | 17 | 236 | 1.6 | 4.8 | 0.00 | 0.79 | 0.79 | 93 | 1005.7 |
| 20260506185101 | 17 | 236 | 0.0 | 6.4 | 0.00 | 0.79 | 0.79 | 93 | 1005.7 |
| 20260506185005 | 17 | 236 | 0.0 | 6.4 | 0.00 | 0.79 | 0.79 | 93 | 1005.6 |
| 20260506184902 | 17 | 236 | 0.0 | 6.4 | 0.00 | 0.79 | 0.79 | 92 | 1005.7 |
| 20260506184802 | 17 | 236 | 3.2 | 6.4 | 0.00 | 0.79 | 0.79 | 92 | 1005.7 |
| 20260506184602 | 17 | 236 | 0.0 | 6.4 | 0.00 | 0.79 | 0.79 | 93 | 1005.7 |
| 20260506184506 | 17 | 236 | 3.2 | 6.4 | 0.00 | 0.79 | 0.79 | 93 | 1005.7 |
| 20260506184401 | 17 | 236 | 3.2 | 6.4 | 0.00 | 0.79 | 0.79 | 93 | 1005.8 |
| 20260506184302 | 17 | 236 | 3.2 | 6.4 | 0.00 | 0.79 | 0.79 | 92 | 1005.8 |
| 20260506184202 | 17 | 198 | 0.0 | 0.0 | 0.00 | 0.79 | 0.79 | 92 | 1005.8 |
| 20260506184101 | 17 | 180 | 0.0 | 0.0 | 0.03 | 0.79 | 0.79 | 92 | 1005.8 |
| 20260506183903 | 17 | 180 | 0.0 | 0.0 | 0.03 | 0.79 | 0.79 | 92 | 1005.8 |
| 20260506183603 | 17 | 180 | 0.0 | 0.0 | 0.03 | 0.79 | 0.79 | 92 | 1005.9 |
| 20260506183505 | 17 | 180 | 0.0 | 0.0 | 0.03 | 0.79 | 0.79 | 92 | 1005.9 |
| 20260506183402 | 17 | 180 | 0.0 | 0.0 | 0.03 | 0.79 | 0.79 | 92 | 1005.9 |
| 20260506183202 | 17 | 180 | 0.0 | 0.0 | 0.03 | 0.79 | 0.79 | 91 | 1005.9 |
| 20260506183101 | 17 | 178 | 0.0 | 0.0 | 0.03 | 0.79 | 0.79 | 91 | 1005.9 |
| 20260506183007 | 17 | 178 | 0.0 | 0.0 | 0.03 | 0.79 | 0.79 | 91 | 1005.9 |
| 20260506182702 | 17 | 178 | 0.0 | 0.0 | 0.03 | 0.79 | 0.79 | 91 | 1005.9 |
| 20260506182601 | 17 | 178 | 0.0 | 0.0 | 0.03 | 0.79 | 0.79 | 92 | 1005.9 |
| 20260506182506 | 16 | 178 | 0.0 | 0.0 | 0.03 | 0.79 | 0.79 | 92 | 1005.9 |
| 20260506182402 | 16 | 178 | 0.0 | 0.0 | 0.03 | 0.79 | 0.79 | 91 | 1005.9 |
| 20260506182306 | 16 | 178 | 0.0 | 0.0 | 0.03 | 0.79 | 0.79 | 91 | 1005.8 |
| 20260506182203 | 16 | 178 | 0.0 | 0.0 | 0.03 | 0.79 | 0.79 | 91 | 1005.9 |
| 20260506182101 | 16 | 153 | 0.0 | 0.0 | 0.03 | 0.79 | 0.79 | 91 | 1005.9 |
| 20260506182006 | 16 | 153 | 0.0 | 0.0 | 0.03 | 0.79 | 0.79 | 91 | 1005.8 |
| 20260506181901 | 16 | 153 | 0.0 | 0.0 | 0.03 | 0.79 | 0.79 | 91 | 1005.9 |
| 20260506181802 | 16 | 153 | 0.0 | 0.0 | 0.03 | 0.79 | 0.79 | 91 | 1005.8 |
| 20260506181703 | 16 | 153 | 0.0 | 0.0 | 0.03 | 0.79 | 0.79 | 91 | 1005.9 |
| 20260506181602 | 16 | 153 | 0.0 | 0.0 | 0.03 | 0.79 | 0.79 | 91 | 1005.9 |
| 20260506181505 | 16 | 153 | 0.0 | 0.0 | 0.03 | 0.79 | 0.79 | 91 | 1006.0 |
| 20260506181402 | 16 | 153 | 0.0 | 0.0 | 0.03 | 0.79 | 0.79 | 91 | 1006.0 |
| 20260506181301 | 16 | 153 | 0.0 | 0.0 | 0.03 | 0.79 | 0.79 | 91 | 1006.0 |
| 20260506181202 | 16 | 153 | 0.0 | 0.0 | 0.03 | 0.79 | 0.79 | 91 | 1006.0 |
| 20260506181103 | 16 | 153 | 0.0 | 0.0 | 0.05 | 0.79 | 0.79 | 92 | 1006.0 |
| 20260506181005 | 16 | 153 | 0.0 | 0.0 | 0.05 | 0.79 | 0.79 | 92 | 1006.0 |
| 20260506180902 | 16 | 153 | 0.0 | 0.0 | 0.05 | 0.79 | 0.79 | 92 | 1006.0 |
| 20260506180701 | 16 | 153 | 0.0 | 0.0 | 0.05 | 0.79 | 0.79 | 92 | 1006.1 |
| 20260506180601 | 16 | 153 | 0.0 | 0.0 | 0.05 | 0.79 | 0.79 | 92 | 1006.1 |
| 20260506180403 | 16 | 153 | 0.0 | 0.0 | 0.05 | 0.79 | 0.79 | 92 | 1006.1 |
| 20260506180202 | 16 | 153 | 0.0 | 0.0 | 0.05 | 0.79 | 0.79 | 92 | 1006.1 |
| 20260506180006 | 16 | 153 | 0.0 | 1.6 | 0.05 | 0.79 | 0.79 | 92 | 1006.1 |
| 20260506175801 | 16 | 153 | 0.0 | 3.2 | 0.05 | 0.79 | 0.79 | 92 | 1006.1 |
| 20260506175701 | 16 | 153 | 0.0 | 3.2 | 0.05 | 0.79 | 0.79 | 92 | 1006.1 |
| 20260506175600 | 16 | 153 | 0.0 | 3.2 | 0.05 | 0.79 | 0.79 | 92 | 1006.1 |
| 20260506175507 | 16 | 153 | 0.0 | 3.2 | 0.05 | 0.79 | 0.79 | 92 | 1006.1 |
| 20260506175401 | 16 | 153 | 0.0 | 3.2 | 0.05 | 0.79 | 0.79 | 91 | 1006.1 |
| 20260506175259 | 16 | 153 | 0.0 | 3.2 | 0.05 | 0.79 | 0.79 | 91 | 1006.0 |
| 20260506175200 | 16 | 153 | 0.0 | 3.2 | 0.05 | 0.79 | 0.79 | 91 | 1006.1 |
| 20260506175101 | 16 | 153 | 0.0 | 3.2 | 0.05 | 0.79 | 0.79 | 91 | 1006.1 |
| 20260506175004 | 16 | 153 | 1.6 | 3.2 | 0.05 | 0.79 | 0.79 | 91 | 1006.1 |
| 20260506174900 | 16 | 153 | 0.0 | 3.2 | 0.05 | 0.79 | 0.79 | 91 | 1006.0 |
| 20260506174801 | 16 | 153 | 0.0 | 3.2 | 0.05 | 0.79 | 0.79 | 91 | 1006.1 |
| 20260506174701 | 16 | 153 | 0.0 | 3.2 | 0.05 | 0.79 | 0.79 | 91 | 1006.1 |
| 20260506174601 | 16 | 153 | 0.0 | 3.2 | 0.05 | 0.79 | 0.79 | 91 | 1006.1 |
| 20260506174506 | 16 | 153 | 1.6 | 3.2 | 0.05 | 0.79 | 0.79 | 92 | 1006.1 |
| 20260506174401 | 16 | 153 | 1.6 | 3.2 | 0.05 | 0.79 | 0.79 | 92 | 1006.1 |
| 20260506174301 | 16 | 153 | 0.0 | 3.2 | 0.05 | 0.79 | 0.79 | 91 | 1006.1 |
| 20260506174201 | 16 | 153 | 1.6 | 4.8 | 0.05 | 0.79 | 0.79 | 91 | 1006.1 |
| 20260506174004 | 16 | 153 | 0.0 | 4.8 | 0.03 | 0.76 | 0.76 | 91 | 1006.1 |
| 20260506173903 | 16 | 153 | 0.0 | 4.8 | 0.03 | 0.76 | 0.76 | 91 | 1006.1 |
| 20260506173801 | 16 | 153 | 1.6 | 4.8 | 0.03 | 0.76 | 0.76 | 91 | 1006.1 |
| 20260506173701 | 16 | 153 | 1.6 | 4.8 | 0.03 | 0.76 | 0.76 | 92 | 1006.0 |
| 20260506173600 | 16 | 153 | 0.0 | 4.8 | 0.03 | 0.76 | 0.76 | 91 | 1006.0 |
| 20260506173505 | 16 | 153 | 3.2 | 4.8 | 0.03 | 0.76 | 0.76 | 91 | 1006.1 |
| 20260506173402 | 16 | 153 | 0.0 | 4.8 | 0.03 | 0.76 | 0.76 | 91 | 1006.1 |
| 20260506173301 | 16 | 153 | 1.6 | 4.8 | 0.03 | 0.76 | 0.76 | 91 | 1006.1 |
| 20260506173005 | 16 | 146 | 0.0 | 3.2 | 0.03 | 0.76 | 0.76 | 91 | 1006.1 |
| 20260506172901 | 16 | 146 | 0.0 | 3.2 | 0.03 | 0.76 | 0.76 | 91 | 1006.0 |
| 20260506172800 | 16 | 146 | 1.6 | 3.2 | 0.03 | 0.76 | 0.76 | 91 | 1006.1 |
| 20260506172701 | 16 | 146 | 0.0 | 3.2 | 0.03 | 0.76 | 0.76 | 91 | 1006.1 |
| 20260506172600 | 16 | 146 | 0.0 | 3.2 | 0.03 | 0.76 | 0.76 | 91 | 1006.1 |
| 20260506172505 | 16 | 146 | 1.6 | 3.2 | 0.03 | 0.76 | 0.76 | 91 | 1006.1 |
| 20260506172401 | 16 | 146 | 3.2 | 3.2 | 0.03 | 0.76 | 0.76 | 91 | 1006.1 |
| 20260506172301 | 16 | 146 | 0.0 | 0.0 | 0.03 | 0.76 | 0.76 | 91 | 1006.1 |
| 20260506172200 | 16 | 146 | 0.0 | 0.0 | 0.03 | 0.76 | 0.76 | 91 | 1006.1 |
| 20260506172102 | 16 | 146 | 0.0 | 1.6 | 0.03 | 0.76 | 0.76 | 91 | 1006.1 |
| 20260506172006 | 16 | 146 | 0.0 | 1.6 | 0.03 | 0.76 | 0.76 | 91 | 1006.1 |
| 20260506171901 | 16 | 146 | 0.0 | 3.2 | 0.03 | 0.76 | 0.76 | 91 | 1006.1 |
| 20260506171802 | 16 | 146 | 0.0 | 3.2 | 0.03 | 0.76 | 0.76 | 91 | 1006.1 |
| 20260506171702 | 16 | 145 | 0.0 | 3.2 | 0.03 | 0.76 | 0.76 | 91 | 1006.1 |
| 20260506171601 | 16 | 146 | 0.0 | 3.2 | 0.03 | 0.76 | 0.76 | 91 | 1006.1 |
| 20260506171505 | 16 | 146 | 0.0 | 3.2 | 0.03 | 0.76 | 0.76 | 91 | 1006.1 |
| 20260506171401 | 16 | 146 | 0.0 | 3.2 | 0.03 | 0.76 | 0.76 | 91 | 1006.1 |
| 20260506171005 | 16 | 146 | 0.0 | 3.2 | 0.00 | 0.74 | 0.74 | 91 | 1006.1 |
| 20260506170801 | 16 | 146 | 1.6 | 1.6 | 0.00 | 0.74 | 0.74 | 91 | 1006.1 |
| 20260506170700 | 16 | 146 | 0.0 | 0.0 | 0.00 | 0.74 | 0.74 | 91 | 1006.1 |
| 20260506170601 | 16 | 145 | 0.0 | 0.0 | 0.00 | 0.74 | 0.74 | 91 | 1006.1 |
| 20260506170505 | 16 | 145 | 0.0 | 0.0 | 0.00 | 0.74 | 0.74 | 91 | 1006.1 |
| 20260506170401 | 16 | 145 | 0.0 | 0.0 | 0.00 | 0.74 | 0.74 | 91 | 1006.0 |
| 20260506170300 | 16 | 146 | 0.0 | 0.0 | 0.00 | 0.74 | 0.74 | 91 | 1006.1 |
| 20260506170202 | 16 | 146 | 0.0 | 3.2 | 0.00 | 0.74 | 0.74 | 91 | 1006.1 |
| 20260506170101 | 16 | 145 | 0.0 | 3.2 | 0.00 | 0.74 | 0.74 | 91 | 1006.2 |
| 20260506170005 | 16 | 146 | 0.0 | 3.2 | 0.00 | 0.74 | 0.74 | 91 | 1006.2 |
| 20260506165902 | 16 | 146 | 0.0 | 3.2 | 0.00 | 0.74 | 0.74 | 91 | 1006.2 |
| 20260506165801 | 16 | 145 | 0.0 | 3.2 | 0.00 | 0.74 | 0.74 | 91 | 1006.2 |
| 20260506165701 | 16 | 146 | 0.0 | 3.2 | 0.00 | 0.74 | 0.74 | 91 | 1006.2 |
| 20260506165603 | 16 | 145 | 0.0 | 3.2 | 0.00 | 0.74 | 0.74 | 92 | 1006.1 |
| 20260506165102 | 16 | 146 | 0.0 | 3.2 | 0.00 | 0.74 | 0.74 | 92 | 1006.1 |
| 20260506165007 | 16 | 146 | 0.0 | 3.2 | 0.00 | 0.74 | 0.74 | 92 | 1006.1 |
| 20260506164901 | 16 | 146 | 0.0 | 3.2 | 0.00 | 0.74 | 0.74 | 92 | 1006.2 |
| 20260506164804 | 16 | 146 | 0.0 | 3.2 | 0.00 | 0.74 | 0.74 | 92 | 1006.1 |
| 20260506164702 | 16 | 146 | 0.0 | 3.2 | 0.00 | 0.74 | 0.74 | 92 | 1006.1 |
| 20260506164506 | 16 | 145 | 0.0 | 0.0 | 0.00 | 0.74 | 0.74 | 92 | 1006.2 |
| 20260506164401 | 16 | 145 | 0.0 | 0.0 | 0.00 | 0.74 | 0.74 | 92 | 1006.2 |
| 20260506164302 | 16 | 145 | 0.0 | 0.0 | 0.00 | 0.74 | 0.74 | 92 | 1006.2 |
| 20260506164201 | 16 | 145 | 0.0 | 0.0 | 0.00 | 0.74 | 0.74 | 92 | 1006.2 |
| 20260506164102 | 16 | 145 | 0.0 | 0.0 | 0.00 | 0.74 | 0.74 | 92 | 1006.2 |
| 20260506164006 | 16 | 145 | 0.0 | 0.0 | 0.00 | 0.74 | 0.74 | 92 | 1006.2 |
| 20260506163801 | 16 | 145 | 0.0 | 0.0 | 0.03 | 0.74 | 0.74 | 92 | 1006.2 |
| 20260506163701 | 16 | 145 | 0.0 | 0.0 | 0.03 | 0.74 | 0.74 | 92 | 1006.3 |
| 20260506163601 | 16 | 145 | 0.0 | 0.0 | 0.03 | 0.74 | 0.74 | 92 | 1006.3 |
| 20260506163505 | 16 | 145 | 0.0 | 0.0 | 0.03 | 0.74 | 0.74 | 92 | 1006.3 |
| 20260506163302 | 16 | 145 | 0.0 | 0.0 | 0.03 | 0.74 | 0.74 | 92 | 1006.3 |
| 20260506163204 | 16 | 145 | 0.0 | 0.0 | 0.03 | 0.74 | 0.74 | 92 | 1006.3 |
| 20260506163102 | 16 | 145 | 0.0 | 0.0 | 0.03 | 0.74 | 0.74 | 92 | 1006.3 |
| 20260506163006 | 16 | 145 | 0.0 | 0.0 | 0.03 | 0.74 | 0.74 | 92 | 1006.3 |
| 20260506162901 | 16 | 145 | 0.0 | 0.0 | 0.03 | 0.74 | 0.74 | 92 | 1006.3 |
| 20260506162802 | 16 | 145 | 0.0 | 0.0 | 0.03 | 0.74 | 0.74 | 92 | 1006.3 |
| 20260506162702 | 16 | 145 | 0.0 | 1.6 | 0.03 | 0.74 | 0.74 | 92 | 1006.3 |
| 20260506162601 | 16 | 145 | 0.0 | 1.6 | 0.03 | 0.74 | 0.74 | 92 | 1006.3 |
| 20260506162505 | 16 | 145 | 0.0 | 1.6 | 0.03 | 0.74 | 0.74 | 92 | 1006.3 |
| 20260506162402 | 16 | 145 | 0.0 | 1.6 | 0.03 | 0.74 | 0.74 | 92 | 1006.3 |
| 20260506162301 | 16 | 145 | 0.0 | 1.6 | 0.03 | 0.74 | 0.74 | 92 | 1006.3 |
| 20260506162201 | 16 | 145 | 0.0 | 1.6 | 0.03 | 0.74 | 0.74 | 92 | 1006.4 |
| 20260506162103 | 16 | 145 | 0.0 | 1.6 | 0.03 | 0.74 | 0.74 | 92 | 1006.3 |
| 20260506162006 | 16 | 145 | 0.0 | 1.6 | 0.03 | 0.74 | 0.74 | 92 | 1006.3 |
| 20260506161902 | 16 | 145 | 0.0 | 1.6 | 0.03 | 0.74 | 0.74 | 92 | 1006.3 |
| 20260506161802 | 16 | 145 | 0.0 | 1.6 | 0.03 | 0.74 | 0.74 | 92 | 1006.3 |
| 20260506161702 | 16 | 145 | 1.6 | 1.6 | 0.03 | 0.74 | 0.74 | 92 | 1006.3 |
| 20260506161603 | 16 | 145 | 1.6 | 3.2 | 0.03 | 0.74 | 0.74 | 92 | 1006.3 |
| 20260506161505 | 15 | 145 | 0.0 | 3.2 | 0.03 | 0.74 | 0.74 | 92 | 1006.3 |
| 20260506161402 | 15 | 145 | 0.0 | 3.2 | 0.03 | 0.74 | 0.74 | 92 | 1006.3 |
| 20260506161302 | 15 | 145 | 0.0 | 3.2 | 0.03 | 0.74 | 0.74 | 92 | 1006.3 |
| 20260506161202 | 16 | 145 | 1.6 | 3.2 | 0.03 | 0.74 | 0.74 | 92 | 1006.4 |
| 20260506161102 | 15 | 145 | 0.0 | 3.2 | 0.03 | 0.74 | 0.74 | 92 | 1006.4 |
| 20260506161006 | 15 | 145 | 0.0 | 3.2 | 0.03 | 0.74 | 0.74 | 92 | 1006.4 |
| 20260506160901 | 15 | 145 | 0.0 | 3.2 | 0.03 | 0.74 | 0.74 | 92 | 1006.3 |
| 20260506160802 | 15 | 145 | 0.0 | 3.2 | 0.03 | 0.74 | 0.74 | 92 | 1006.3 |
| 20260506160702 | 15 | 145 | 1.6 | 3.2 | 0.05 | 0.74 | 0.74 | 92 | 1006.3 |
| 20260506160602 | 16 | 145 | 0.0 | 3.2 | 0.05 | 0.74 | 0.74 | 92 | 1006.3 |
| 20260506160505 | 16 | 145 | 3.2 | 3.2 | 0.05 | 0.74 | 0.74 | 92 | 1006.2 |
| 20260506160301 | 15 | 145 | 0.0 | 3.2 | 0.08 | 0.74 | 0.74 | 92 | 1006.2 |
| 20260506160202 | 16 | 145 | 0.0 | 3.2 | 0.08 | 0.74 | 0.74 | 92 | 1006.2 |
| 20260506160006 | 15 | 145 | 0.0 | 3.2 | 0.10 | 0.74 | 0.74 | 92 | 1006.2 |
| 20260506155802 | 15 | 145 | 0.0 | 3.2 | 0.10 | 0.74 | 0.74 | 92 | 1006.2 |
| 20260506155701 | 15 | 145 | 1.6 | 3.2 | 0.10 | 0.74 | 0.74 | 92 | 1006.3 |
| 20260506155505 | 15 | 145 | 0.0 | 3.2 | 0.13 | 0.74 | 0.74 | 92 | 1006.3 |
| 20260506155401 | 15 | 145 | 0.0 | 3.2 | 0.15 | 0.74 | 0.74 | 92 | 1006.3 |
| 20260506155300 | 15 | 145 | 0.0 | 3.2 | 0.15 | 0.74 | 0.74 | 92 | 1006.3 |
| 20260506155202 | 15 | 145 | 0.0 | 3.2 | 0.15 | 0.74 | 0.74 | 92 | 1006.2 |
| 20260506155100 | 15 | 145 | 0.0 | 3.2 | 0.15 | 0.74 | 0.74 | 92 | 1006.3 |
| 20260506155005 | 15 | 145 | 0.0 | 3.2 | 0.15 | 0.74 | 0.74 | 92 | 1006.3 |
| 20260506154802 | 15 | 145 | 1.6 | 3.2 | 0.18 | 0.74 | 0.74 | 92 | 1006.3 |
| 20260506154701 | 15 | 145 | 1.6 | 3.2 | 0.18 | 0.74 | 0.74 | 92 | 1006.2 |
| 20260506154600 | 15 | 145 | 1.6 | 3.2 | 0.20 | 0.74 | 0.74 | 92 | 1006.2 |
| 20260506154505 | 15 | 145 | 0.0 | 3.2 | 0.20 | 0.74 | 0.74 | 92 | 1006.3 |
| 20260506154400 | 15 | 145 | 0.0 | 3.2 | 0.20 | 0.74 | 0.74 | 92 | 1006.3 |
| 20260506154300 | 15 | 145 | 0.0 | 3.2 | 0.20 | 0.74 | 0.74 | 92 | 1006.3 |
| 20260506154202 | 15 | 145 | 1.6 | 3.2 | 0.23 | 0.74 | 0.74 | 92 | 1006.3 |
| 20260506154101 | 15 | 145 | 0.0 | 3.2 | 0.23 | 0.74 | 0.74 | 92 | 1006.3 |
| 20260506154005 | 15 | 145 | 0.0 | 3.2 | 0.20 | 0.71 | 0.71 | 92 | 1006.2 |
| 20260506153900 | 15 | 145 | 0.0 | 3.2 | 0.23 | 0.71 | 0.71 | 92 | 1006.3 |
| 20260506153800 | 15 | 145 | 0.0 | 3.2 | 0.23 | 0.71 | 0.71 | 92 | 1006.2 |
| 20260506153600 | 15 | 145 | 3.2 | 3.2 | 0.23 | 0.71 | 0.71 | 92 | 1006.2 |
| 20260506153505 | 15 | 145 | 3.2 | 3.2 | 0.23 | 0.71 | 0.71 | 92 | 1006.2 |
| 20260506153402 | 15 | 145 | 0.0 | 3.2 | 0.23 | 0.71 | 0.71 | 92 | 1006.3 |
| 20260506153301 | 15 | 145 | 0.0 | 3.2 | 0.25 | 0.71 | 0.71 | 92 | 1006.2 |
| 20260506153201 | 15 | 145 | 1.6 | 3.2 | 0.25 | 0.71 | 0.71 | 92 | 1006.2 |
| 20260506153100 | 15 | 145 | 0.0 | 6.4 | 0.25 | 0.71 | 0.71 | 92 | 1006.2 |
| 20260506152900 | 15 | 145 | 3.2 | 8.0 | 0.28 | 0.71 | 0.71 | 92 | 1006.1 |
| 20260506152801 | 15 | 145 | 0.0 | 8.0 | 0.28 | 0.71 | 0.71 | 92 | 1006.2 |
| 20260506152700 | 15 | 145 | 1.6 | 8.0 | 0.28 | 0.71 | 0.71 | 92 | 1006.1 |
| 20260506152600 | 15 | 145 | 1.6 | 8.0 | 0.28 | 0.71 | 0.71 | 92 | 1006.1 |
| 20260506152402 | 15 | 146 | 1.6 | 8.0 | 0.30 | 0.71 | 0.71 | 92 | 1006.1 |
| 20260506152305 | 15 | 146 | 3.2 | 8.0 | 0.33 | 0.71 | 0.71 | 92 | 1006.0 |
| 20260506152201 | 15 | 146 | 1.6 | 8.0 | 0.33 | 0.71 | 0.71 | 92 | 1006.0 |
| 20260506152101 | 15 | 145 | 3.2 | 8.0 | 0.33 | 0.71 | 0.71 | 92 | 1006.0 |
| 20260506151801 | 15 | 188 | 1.6 | 6.4 | 0.38 | 0.71 | 0.71 | 92 | 1006.1 |
| 20260506151701 | 15 | 188 | 3.2 | 6.4 | 0.38 | 0.71 | 0.71 | 92 | 1006.0 |
| 20260506151601 | 15 | 188 | 4.8 | 6.4 | 0.38 | 0.71 | 0.71 | 92 | 1006.0 |
| 20260506151505 | 15 | 140 | 6.4 | 6.4 | 0.38 | 0.71 | 0.71 | 92 | 1006.0 |
| 20260506151359 | 15 | 143 | 0.0 | 6.4 | 0.41 | 0.71 | 0.71 | 92 | 1006.0 |
| 20260506151300 | 15 | 143 | 0.0 | 6.4 | 0.41 | 0.71 | 0.71 | 92 | 1006.0 |
| 20260506151201 | 15 | 143 | 6.4 | 6.4 | 0.41 | 0.71 | 0.71 | 92 | 1006.0 |
| 20260506151101 | 15 | 175 | 1.6 | 6.4 | 0.41 | 0.71 | 0.71 | 92 | 1006.0 |
| 20260506151006 | 15 | 174 | 4.8 | 8.0 | 0.41 | 0.71 | 0.71 | 92 | 1006.1 |
| 20260506150901 | 15 | 124 | 1.6 | 4.8 | 0.41 | 0.71 | 0.71 | 92 | 1006.1 |
| 20260506150802 | 15 | 124 | 0.0 | 4.8 | 0.41 | 0.71 | 0.71 | 92 | 1006.2 |
| 20260506150602 | 15 | 124 | 1.6 | 4.8 | 0.38 | 0.69 | 0.69 | 92 | 1006.3 |
| 20260506150505 | 15 | 124 | 3.2 | 4.8 | 0.38 | 0.69 | 0.69 | 92 | 1006.3 |
| 20260506150401 | 15 | 124 | 1.6 | 4.8 | 0.38 | 0.69 | 0.69 | 92 | 1006.3 |
| 20260506150304 | 15 | 124 | 0.0 | 4.8 | 0.36 | 0.66 | 0.66 | 92 | 1006.4 |
| 20260506150202 | 15 | 124 | 0.0 | 6.4 | 0.36 | 0.66 | 0.66 | 92 | 1006.3 |
| 20260506150006 | 15 | 124 | 1.6 | 6.4 | 0.33 | 0.64 | 0.64 | 92 | 1006.3 |
| 20260506145901 | 15 | 124 | 0.0 | 6.4 | 0.33 | 0.64 | 0.64 | 92 | 1006.3 |
| 20260506145801 | 15 | 123 | 3.2 | 6.4 | 0.33 | 0.64 | 0.64 | 92 | 1006.3 |
| 20260506145702 | 15 | 147 | 3.2 | 6.4 | 0.33 | 0.64 | 0.64 | 92 | 1006.4 |
| 20260506145603 | 15 | 147 | 0.0 | 6.4 | 0.30 | 0.61 | 0.61 | 92 | 1006.4 |
| 20260506145305 | 15 | 292 | 6.4 | 8.0 | 0.30 | 0.58 | 0.58 | 92 | 1006.4 |
| 20260506145203 | 15 | 163 | 1.6 | 8.0 | 0.30 | 0.58 | 0.58 | 92 | 1006.4 |
| 20260506144901 | 15 | 142 | 1.6 | 6.4 | 0.30 | 0.58 | 0.58 | 92 | 1006.4 |
| 20260506144505 | 15 | 280 | 0.0 | 9.7 | 0.25 | 0.53 | 0.53 | 92 | 1006.5 |
| 20260506144403 | 15 | 280 | 0.0 | 9.7 | 0.25 | 0.53 | 0.53 | 92 | 1006.6 |
| 20260506144302 | 15 | 280 | 3.2 | 9.7 | 0.25 | 0.53 | 0.53 | 92 | 1006.6 |
| 20260506144201 | 15 | 157 | 1.6 | 9.7 | 0.23 | 0.51 | 0.51 | 93 | 1006.7 |
| 20260506144102 | 15 | 157 | 0.0 | 9.7 | 0.25 | 0.51 | 0.51 | 93 | 1006.7 |
| 20260506144006 | 15 | 157 | 1.6 | 9.7 | 0.25 | 0.51 | 0.51 | 93 | 1006.8 |
| 20260506143902 | 15 | 157 | 1.6 | 12.9 | 0.23 | 0.48 | 0.48 | 93 | 1006.8 |
| 20260506143803 | 15 | 141 | 1.6 | 12.9 | 0.23 | 0.48 | 0.48 | 93 | 1006.8 |
| 20260506143702 | 15 | 176 | 1.6 | 12.9 | 0.25 | 0.48 | 0.48 | 93 | 1006.8 |
| 20260506143602 | 15 | 183 | 3.2 | 12.9 | 0.25 | 0.48 | 0.48 | 93 | 1006.8 |
| 20260506143505 | 15 | 184 | 1.6 | 12.9 | 0.25 | 0.48 | 0.48 | 93 | 1006.8 |
| 20260506143403 | 15 | 298 | 3.2 | 12.9 | 0.25 | 0.48 | 0.48 | 93 | 1006.8 |
| 20260506143303 | 15 | 263 | 4.8 | 12.9 | 0.23 | 0.46 | 0.46 | 93 | 1006.9 |
| 20260506143203 | 15 | 159 | 3.2 | 12.9 | 0.23 | 0.46 | 0.46 | 93 | 1006.9 |
| 20260506143101 | 15 | 158 | 1.6 | 12.9 | 0.23 | 0.46 | 0.46 | 93 | 1006.9 |
| 20260506143006 | 15 | 158 | 4.8 | 12.9 | 0.23 | 0.43 | 0.43 | 93 | 1007.0 |
| 20260506142902 | 15 | 186 | 3.2 | 6.4 | 0.23 | 0.43 | 0.43 | 93 | 1006.9 |
| 20260506142802 | 16 | 188 | 0.0 | 8.0 | 0.23 | 0.43 | 0.43 | 93 | 1007.0 |
| 20260506142703 | 16 | 188 | 1.6 | 8.0 | 0.23 | 0.43 | 0.43 | 93 | 1007.0 |
| 20260506142603 | 16 | 188 | 6.4 | 8.0 | 0.23 | 0.43 | 0.43 | 93 | 1006.9 |
| 20260506142506 | 16 | 306 | 3.2 | 8.0 | 0.20 | 0.41 | 0.41 | 93 | 1007.0 |
| 20260506142202 | 16 | 325 | 1.6 | 8.0 | 0.20 | 0.38 | 0.38 | 93 | 1006.9 |
| 20260506142103 | 16 | 42 | 1.6 | 8.0 | 0.20 | 0.38 | 0.38 | 93 | 1006.9 |
| 20260506142005 | 16 | 246 | 1.6 | 8.0 | 0.18 | 0.36 | 0.36 | 93 | 1006.9 |
| 20260506141901 | 16 | 198 | 4.8 | 8.0 | 0.15 | 0.33 | 0.33 | 93 | 1006.9 |
| 20260506141802 | 16 | 229 | 4.8 | 6.4 | 0.15 | 0.33 | 0.33 | 94 | 1006.8 |
| 20260506141702 | 16 | 98 | 3.2 | 6.4 | 0.15 | 0.33 | 0.33 | 94 | 1006.9 |
| 20260506141602 | 16 | 216 | 3.2 | 6.4 | 0.15 | 0.33 | 0.33 | 94 | 1006.8 |
| 20260506141506 | 16 | 217 | 0.0 | 6.4 | 0.15 | 0.33 | 0.33 | 94 | 1006.8 |
| 20260506141402 | 16 | 217 | 0.0 | 6.4 | 0.13 | 0.30 | 0.30 | 94 | 1006.9 |
| 20260506141302 | 16 | 217 | 1.6 | 6.4 | 0.13 | 0.30 | 0.30 | 94 | 1006.8 |
| 20260506141202 | 16 | 216 | 1.6 | 8.0 | 0.13 | 0.30 | 0.30 | 94 | 1006.8 |
| 20260506141102 | 16 | 220 | 3.2 | 8.0 | 0.13 | 0.30 | 0.30 | 94 | 1006.8 |
| 20260506141006 | 16 | 298 | 1.6 | 8.0 | 0.13 | 0.30 | 0.30 | 94 | 1006.8 |
| 20260506140802 | 16 | 191 | 4.8 | 8.0 | 0.13 | 0.30 | 0.30 | 94 | 1006.7 |
| 20260506140702 | 16 | 137 | 0.0 | 8.0 | 0.13 | 0.30 | 0.30 | 94 | 1006.7 |
| 20260506140602 | 16 | 140 | 3.2 | 8.0 | 0.13 | 0.30 | 0.30 | 94 | 1006.7 |
| 20260506140505 | 16 | 140 | 4.8 | 8.0 | 0.13 | 0.30 | 0.30 | 93 | 1006.7 |
| 20260506140401 | 16 | 139 | 4.8 | 8.0 | 0.13 | 0.30 | 0.30 | 93 | 1006.7 |
| 20260506140202 | 16 | 92 | 3.2 | 6.4 | 0.13 | 0.30 | 0.30 | 93 | 1006.6 |
| 20260506140006 | 16 | 44 | 4.8 | 6.4 | 0.13 | 0.30 | 0.30 | 93 | 1006.5 |
| 20260506135902 | 16 | 163 | 1.6 | 6.4 | 0.13 | 0.30 | 0.30 | 93 | 1006.5 |
| 20260506135801 | 16 | 178 | 4.8 | 6.4 | 0.13 | 0.30 | 0.30 | 93 | 1006.5 |
| 20260506135701 | 16 | 202 | 1.6 | 6.4 | 0.13 | 0.30 | 0.30 | 93 | 1006.4 |
| 20260506135601 | 16 | 216 | 1.6 | 6.4 | 0.13 | 0.30 | 0.30 | 93 | 1006.4 |
| 20260506135505 | 16 | 216 | 0.0 | 6.4 | 0.13 | 0.30 | 0.30 | 93 | 1006.4 |
| 20260506135401 | 16 | 216 | 1.6 | 6.4 | 0.13 | 0.30 | 0.30 | 93 | 1006.4 |
| 20260506135301 | 16 | 216 | 0.0 | 6.4 | 0.10 | 0.28 | 0.28 | 93 | 1006.4 |
| 20260506135201 | 16 | 217 | 6.4 | 6.4 | 0.10 | 0.28 | 0.28 | 93 | 1006.4 |
| 20260506135101 | 16 | 236 | 0.0 | 3.2 | 0.10 | 0.28 | 0.28 | 93 | 1006.4 |
| 20260506134801 | 16 | 264 | 0.0 | 4.8 | 0.10 | 0.28 | 0.28 | 94 | 1006.4 |
| 20260506134505 | 16 | 264 | 0.0 | 4.8 | 0.10 | 0.28 | 0.28 | 94 | 1006.4 |
| 20260506134401 | 16 | 264 | 0.0 | 4.8 | 0.10 | 0.28 | 0.28 | 94 | 1006.5 |
| 20260506134301 | 16 | 264 | 1.6 | 4.8 | 0.10 | 0.28 | 0.28 | 94 | 1006.5 |
| 20260506134202 | 15 | 264 | 0.0 | 4.8 | 0.10 | 0.28 | 0.28 | 94 | 1006.5 |
| 20260506134102 | 15 | 264 | 0.0 | 4.8 | 0.08 | 0.25 | 0.25 | 94 | 1006.5 |
| 20260506134005 | 15 | 264 | 0.0 | 4.8 | 0.08 | 0.25 | 0.25 | 94 | 1006.5 |
| 20260506133901 | 15 | 266 | 3.2 | 4.8 | 0.10 | 0.25 | 0.25 | 94 | 1006.6 |
| 20260506133802 | 16 | 296 | 1.6 | 4.8 | 0.10 | 0.25 | 0.25 | 94 | 1006.5 |
| 20260506133701 | 15 | 298 | 0.0 | 4.8 | 0.08 | 0.23 | 0.23 | 94 | 1006.5 |
| 20260506133601 | 16 | 298 | 0.0 | 4.8 | 0.08 | 0.23 | 0.23 | 94 | 1006.5 |
| 20260506133506 | 16 | 298 | 1.6 | 9.7 | 0.08 | 0.23 | 0.23 | 94 | 1006.5 |
| 20260506133400 | 16 | 89 | 0.0 | 9.7 | 0.08 | 0.23 | 0.23 | 94 | 1006.6 |
| 20260506133301 | 16 | 89 | 1.6 | 9.7 | 0.08 | 0.23 | 0.23 | 94 | 1006.5 |
| 20260506133202 | 16 | 89 | 0.0 | 9.7 | 0.08 | 0.23 | 0.23 | 94 | 1006.6 |
| 20260506133102 | 16 | 89 | 0.0 | 9.7 | 0.08 | 0.23 | 0.23 | 94 | 1006.5 |
| 20260506133006 | 16 | 89 | 1.6 | 9.7 | 0.05 | 0.20 | 0.20 | 94 | 1006.5 |
| 20260506132802 | 16 | 210 | 0.0 | 9.7 | 0.05 | 0.20 | 0.20 | 94 | 1006.5 |
| 20260506132701 | 16 | 211 | 1.6 | 9.7 | 0.05 | 0.20 | 0.20 | 94 | 1006.4 |
| 20260506132600 | 16 | 159 | 6.4 | 9.7 | 0.05 | 0.20 | 0.20 | 94 | 1006.3 |
| 20260506132507 | 16 | 317 | 3.2 | 8.0 | 0.05 | 0.20 | 0.20 | 94 | 1006.4 |
| 20260506132402 | 16 | 175 | 1.6 | 4.8 | 0.05 | 0.20 | 0.20 | 94 | 1006.5 |
| 20260506132302 | 16 | 175 | 1.6 | 4.8 | 0.08 | 0.20 | 0.20 | 94 | 1006.4 |
| 20260506132201 | 16 | 175 | 0.0 | 4.8 | 0.05 | 0.18 | 0.18 | 94 | 1006.5 |
| 20260506132101 | 16 | 175 | 1.6 | 4.8 | 0.05 | 0.18 | 0.18 | 94 | 1006.5 |
| 20260506131801 | 16 | 174 | 0.0 | 6.4 | 0.05 | 0.18 | 0.18 | 94 | 1006.7 |
| 20260506131701 | 16 | 174 | 3.2 | 6.4 | 0.05 | 0.18 | 0.18 | 94 | 1006.6 |
| 20260506131604 | 16 | 173 | 1.6 | 6.4 | 0.05 | 0.18 | 0.18 | 94 | 1006.6 |
| 20260506131505 | 16 | 113 | 1.6 | 6.4 | 0.05 | 0.18 | 0.18 | 94 | 1006.7 |
| 20260506131401 | 16 | 113 | 0.0 | 6.4 | 0.05 | 0.18 | 0.18 | 94 | 1006.7 |
| 20260506131301 | 16 | 113 | 0.0 | 8.0 | 0.05 | 0.18 | 0.18 | 94 | 1006.7 |
| 20260506131201 | 16 | 113 | 3.2 | 8.0 | 0.05 | 0.18 | 0.18 | 94 | 1006.7 |
| 20260506131006 | 16 | 113 | 4.8 | 8.0 | 0.05 | 0.18 | 0.18 | 94 | 1006.7 |
| 20260506130902 | 16 | 190 | 3.2 | 8.0 | 0.05 | 0.18 | 0.18 | 94 | 1006.7 |
| 20260506130800 | 16 | 190 | 3.2 | 8.0 | 0.08 | 0.18 | 0.18 | 94 | 1006.7 |
| 20260506130701 | 16 | 189 | 0.0 | 8.0 | 0.08 | 0.18 | 0.18 | 94 | 1006.7 |
| 20260506130505 | 16 | 189 | 3.2 | 8.0 | 0.08 | 0.18 | 0.18 | 94 | 1006.7 |
| 20260506130400 | 16 | 189 | 4.8 | 8.0 | 0.08 | 0.18 | 0.18 | 94 | 1006.6 |
| 20260506130200 | 16 | 184 | 1.6 | 3.2 | 0.10 | 0.18 | 0.18 | 94 | 1006.6 |
| 20260506130007 | 16 | 185 | 0.0 | 3.2 | 0.10 | 0.18 | 0.18 | 94 | 1006.6 |
| 20260506125902 | 16 | 185 | 0.0 | 3.2 | 0.10 | 0.18 | 0.18 | 94 | 1006.6 |
| 20260506125803 | 16 | 185 | 0.0 | 3.2 | 0.10 | 0.18 | 0.18 | 94 | 1006.7 |
| 20260506125601 | 16 | 185 | 1.6 | 3.2 | 0.10 | 0.18 | 0.18 | 94 | 1006.6 |
| 20260506125505 | 16 | 185 | 0.0 | 3.2 | 0.10 | 0.18 | 0.18 | 94 | 1006.6 |
| 20260506125403 | 16 | 185 | 0.0 | 4.8 | 0.10 | 0.18 | 0.18 | 94 | 1006.6 |
| 20260506125305 | 16 | 185 | 0.0 | 4.8 | 0.10 | 0.18 | 0.18 | 94 | 1006.6 |
| 20260506125103 | 16 | 185 | 1.6 | 4.8 | 0.10 | 0.18 | 0.18 | 94 | 1006.7 |
| 20260506125005 | 16 | 185 | 1.6 | 4.8 | 0.10 | 0.18 | 0.18 | 94 | 1006.6 |
| 20260506124801 | 16 | 185 | 0.0 | 4.8 | 0.10 | 0.18 | 0.18 | 94 | 1006.5 |
| 20260506124702 | 16 | 185 | 1.6 | 4.8 | 0.10 | 0.18 | 0.18 | 94 | 1006.5 |
| 20260506124505 | 16 | 185 | 3.2 | 4.8 | 0.13 | 0.18 | 0.18 | 94 | 1006.6 |
| 20260506124403 | 16 | 185 | 0.0 | 3.2 | 0.13 | 0.18 | 0.18 | 94 | 1006.7 |
| 20260506124302 | 16 | 185 | 0.0 | 3.2 | 0.13 | 0.18 | 0.18 | 94 | 1006.7 |
| 20260506124201 | 16 | 185 | 0.0 | 3.2 | 0.13 | 0.18 | 0.18 | 94 | 1006.8 |
| 20260506124103 | 16 | 185 | 0.0 | 4.8 | 0.13 | 0.18 | 0.18 | 94 | 1006.7 |
| 20260506124005 | 16 | 185 | 0.0 | 4.8 | 0.13 | 0.18 | 0.18 | 94 | 1006.7 |
| 20260506123903 | 16 | 185 | 0.0 | 6.4 | 0.13 | 0.15 | 0.15 | 94 | 1006.6 |
| 20260506123505 | 15 | 185 | 0.0 | 6.4 | 0.13 | 0.15 | 0.15 | 94 | 1006.8 |
| 20260506123402 | 15 | 185 | 0.0 | 6.4 | 0.13 | 0.15 | 0.15 | 94 | 1006.7 |
| 20260506123302 | 15 | 185 | 0.0 | 6.4 | 0.13 | 0.15 | 0.15 | 94 | 1006.8 |
| 20260506123201 | 15 | 185 | 1.6 | 6.4 | 0.13 | 0.15 | 0.15 | 94 | 1006.8 |
| 20260506123102 | 15 | 194 | 3.2 | 6.4 | 0.13 | 0.15 | 0.15 | 94 | 1006.8 |
| 20260506123006 | 15 | 279 | 1.6 | 6.4 | 0.13 | 0.15 | 0.15 | 94 | 1006.8 |
| 20260506122902 | 15 | 187 | 3.2 | 4.8 | 0.13 | 0.15 | 0.15 | 94 | 1006.8 |
| 20260506122801 | 15 | 187 | 0.0 | 4.8 | 0.13 | 0.15 | 0.15 | 94 | 1006.8 |
| 20260506122702 | 15 | 187 | 0.0 | 4.8 | 0.13 | 0.15 | 0.15 | 94 | 1006.8 |
| 20260506122603 | 16 | 147 | 4.8 | 4.8 | 0.13 | 0.15 | 0.15 | 94 | 1006.8 |
| 20260506122506 | 15 | 147 | 0.0 | 4.8 | 0.13 | 0.15 | 0.15 | 94 | 1006.8 |
| 20260506122402 | 16 | 147 | 0.0 | 4.8 | 0.13 | 0.15 | 0.15 | 94 | 1006.9 |
| 20260506122302 | 16 | 147 | 3.2 | 4.8 | 0.10 | 0.13 | 0.13 | 94 | 1006.9 |
| 20260506122202 | 16 | 110 | 4.8 | 4.8 | 0.10 | 0.13 | 0.13 | 94 | 1006.9 |
| 20260506122006 | 16 | 287 | 1.6 | 3.2 | 0.10 | 0.13 | 0.13 | 94 | 1007.0 |
| 20260506121902 | 16 | 287 | 0.0 | 3.2 | 0.10 | 0.13 | 0.13 | 93 | 1006.9 |
| 20260506121702 | 16 | 287 | 0.0 | 3.2 | 0.10 | 0.13 | 0.13 | 93 | 1007.0 |
| 20260506121602 | 16 | 287 | 0.0 | 3.2 | 0.10 | 0.13 | 0.13 | 93 | 1007.0 |
| 20260506121506 | 16 | 287 | 0.0 | 3.2 | 0.10 | 0.13 | 0.13 | 93 | 1007.0 |
| 20260506121402 | 16 | 287 | 0.0 | 3.2 | 0.10 | 0.13 | 0.13 | 93 | 1007.0 |
| 20260506121201 | 16 | 287 | 0.0 | 4.8 | 0.13 | 0.13 | 0.13 | 93 | 1007.0 |
| 20260506121101 | 16 | 287 | 0.0 | 4.8 | 0.13 | 0.13 | 0.13 | 93 | 1007.1 |
| 20260506121007 | 16 | 287 | 0.0 | 4.8 | 0.13 | 0.13 | 0.13 | 93 | 1007.1 |
| 20260506120904 | 16 | 287 | 0.0 | 4.8 | 0.13 | 0.13 | 0.13 | 93 | 1007.1 |
| 20260506120803 | 16 | 287 | 0.0 | 4.8 | 0.10 | 0.10 | 0.10 | 93 | 1007.1 |
| 20260506120603 | 16 | 287 | 0.0 | 4.8 | 0.10 | 0.10 | 0.10 | 93 | 1007.2 |
| 20260506120506 | 16 | 287 | 0.0 | 4.8 | 0.10 | 0.10 | 0.10 | 93 | 1007.2 |
| 20260506120403 | 16 | 286 | 1.6 | 4.8 | 0.10 | 0.10 | 0.10 | 92 | 1007.2 |
| 20260506120301 | 16 | 184 | 1.6 | 3.2 | 0.08 | 0.08 | 0.08 | 92 | 1007.2 |
| 20260506120203 | 16 | 184 | 0.0 | 3.2 | 0.08 | 0.08 | 0.08 | 92 | 1007.2 |
| 20260506120007 | 16 | 184 | 0.0 | 3.2 | 0.08 | 0.08 | 0.08 | 92 | 1007.2 |
| 20260506115802 | 16 | 184 | 3.2 | 6.4 | 0.08 | 0.08 | 0.08 | 92 | 1007.2 |
| 20260506115701 | 16 | 184 | 1.6 | 6.4 | 0.08 | 0.08 | 0.08 | 92 | 1007.1 |
| 20260506115603 | 16 | 184 | 3.2 | 6.4 | 0.08 | 0.08 | 0.08 | 92 | 1007.1 |
| 20260506115505 | 16 | 184 | 3.2 | 6.4 | 0.08 | 0.08 | 0.08 | 92 | 1007.2 |
| 20260506115400 | 16 | 184 | 0.0 | 6.4 | 0.08 | 0.08 | 0.08 | 91 | 1007.1 |
| 20260506115306 | 16 | 184 | 0.0 | 6.4 | 0.08 | 0.08 | 0.08 | 91 | 1007.2 |
| 20260506115101 | 16 | 184 | 0.0 | 6.4 | 0.08 | 0.08 | 0.08 | 91 | 1007.1 |
| 20260506115005 | 16 | 184 | 3.2 | 6.4 | 0.08 | 0.08 | 0.08 | 91 | 1007.1 |
| 20260506114801 | 16 | 175 | 1.6 | 3.2 | 0.08 | 0.08 | 0.08 | 90 | 1007.1 |
| 20260506114702 | 16 | 175 | 1.6 | 3.2 | 0.05 | 0.05 | 0.05 | 90 | 1007.0 |
| 20260506114600 | 16 | 175 | 3.2 | 3.2 | 0.05 | 0.05 | 0.05 | 90 | 1006.9 |
| 20260506114505 | 16 | 174 | 1.6 | 3.2 | 0.05 | 0.05 | 0.05 | 90 | 1007.0 |
| 20260506114400 | 16 | 175 | 0.0 | 3.2 | 0.05 | 0.05 | 0.05 | 90 | 1006.9 |
| 20260506114301 | 16 | 175 | 0.0 | 3.2 | 0.05 | 0.05 | 0.05 | 90 | 1006.9 |
| 20260506114101 | 16 | 175 | 0.0 | 3.2 | 0.05 | 0.05 | 0.05 | 89 | 1006.9 |
| 20260506114005 | 16 | 175 | 0.0 | 3.2 | 0.03 | 0.03 | 0.03 | 89 | 1006.9 |
| 20260506113901 | 16 | 175 | 0.0 | 3.2 | 0.03 | 0.03 | 0.03 | 89 | 1006.9 |
| 20260506113801 | 16 | 175 | 0.0 | 3.2 | 0.03 | 0.03 | 0.03 | 89 | 1006.8 |
| 20260506113601 | 16 | 174 | 1.6 | 3.2 | 0.03 | 0.03 | 0.03 | 89 | 1006.8 |
| 20260506113402 | 16 | 174 | 0.0 | 3.2 | 0.03 | 0.03 | 0.03 | 88 | 1006.8 |
| 20260506113301 | 16 | 174 | 0.0 | 8.0 | 0.03 | 0.03 | 0.03 | 87 | 1006.8 |
| 20260506113201 | 16 | 174 | 0.0 | 8.0 | 0.03 | 0.03 | 0.03 | 87 | 1006.7 |
| 20260506113105 | 16 | 174 | 0.0 | 8.0 | 0.03 | 0.03 | 0.03 | 87 | 1006.6 |
| 20260506113006 | 16 | 174 | 1.6 | 8.0 | 0.03 | 0.03 | 0.03 | 87 | 1006.6 |
| 20260506112602 | 16 | 174 | 1.6 | 8.0 | 0.03 | 0.03 | 0.03 | 87 | 1006.5 |
| 20260506112504 | 16 | 174 | 1.6 | 8.0 | 0.03 | 0.03 | 0.03 | 86 | 1006.5 |
| 20260506112402 | 17 | 175 | 3.2 | 8.0 | 0.03 | 0.03 | 0.03 | 87 | 1006.5 |
| 20260506112301 | 17 | 174 | 1.6 | 6.4 | 0.03 | 0.03 | 0.03 | 86 | 1006.4 |
| 20260506111900 | 17 | 202 | 0.0 | 4.8 | 0.03 | 0.03 | 0.03 | 85 | 1006.5 |
| 20260506111801 | 17 | 202 | 1.6 | 4.8 | 0.03 | 0.03 | 0.03 | 85 | 1006.5 |
| 20260506111702 | 17 | 202 | 0.0 | 4.8 | 0.03 | 0.03 | 0.03 | 85 | 1006.5 |
| 20260506111600 | 17 | 167 | 4.8 | 4.8 | 0.03 | 0.03 | 0.03 | 85 | 1006.5 |
| 20260506111505 | 17 | 219 | 0.0 | 3.2 | 0.03 | 0.03 | 0.03 | 85 | 1006.5 |
| 20260506111400 | 17 | 219 | 1.6 | 3.2 | 0.03 | 0.03 | 0.03 | 84 | 1006.5 |
| 20260506111301 | 17 | 219 | 0.0 | 3.2 | 0.00 | 0.00 | 0.00 | 84 | 1006.5 |
| 20260506111201 | 17 | 219 | 0.0 | 3.2 | 0.00 | 0.00 | 0.00 | 84 | 1006.5 |
| 20260506111100 | 17 | 219 | 1.6 | 3.2 | 0.00 | 0.00 | 0.00 | 84 | 1006.4 |
| 20260506110802 | 17 | 219 | 1.6 | 3.2 | 0.00 | 0.00 | 0.00 | 83 | 1006.4 |
| 20260506110701 | 17 | 219 | 0.0 | 3.2 | 0.00 | 0.00 | 0.00 | 83 | 1006.4 |
| 20260506110601 | 17 | 219 | 0.0 | 6.4 | 0.00 | 0.00 | 0.00 | 82 | 1006.4 |
| 20260506110506 | 17 | 219 | 0.0 | 8.0 | 0.00 | 0.00 | 0.00 | 82 | 1006.3 |
| 20260506110401 | 17 | 219 | 0.0 | 8.0 | 0.00 | 0.00 | 0.00 | 81 | 1006.3 |
| 20260506110301 | 17 | 219 | 0.0 | 8.0 | 0.00 | 0.00 | 0.00 | 81 | 1006.3 |
| 20260506110201 | 17 | 219 | 0.0 | 8.0 | 0.00 | 0.00 | 0.00 | 81 | 1006.3 |
| 20260506105902 | 18 | 219 | 1.6 | 8.0 | 0.00 | 0.00 | 0.00 | 79 | 1006.3 |
| 20260506105801 | 18 | 219 | 0.0 | 8.0 | 0.00 | 0.00 | 0.00 | 79 | 1006.3 |
| 20260506105601 | 18 | 279 | 3.2 | 6.4 | 0.00 | 0.00 | 0.00 | 79 | 1006.2 |
| 20260506105505 | 18 | 94 | 3.2 | 6.4 | 0.00 | 0.00 | 0.00 | 78 | 1006.2 |
| 20260506105304 | 18 | 213 | 0.0 | 4.8 | 0.00 | 0.00 | 0.00 | 78 | 1006.2 |
| 20260506105201 | 18 | 213 | 0.0 | 4.8 | 0.00 | 0.00 | 0.00 | 77 | 1006.2 |
| 20260506105100 | 18 | 213 | 1.6 | 9.7 | 0.00 | 0.00 | 0.00 | 77 | 1006.2 |
| 20260506104901 | 18 | 213 | 1.6 | 9.7 | 0.00 | 0.00 | 0.00 | 76 | 1006.1 |
| 20260506104801 | 18 | 213 | 3.2 | 9.7 | 0.00 | 0.00 | 0.00 | 76 | 1006.1 |
| 20260506104702 | 18 | 271 | 1.6 | 9.7 | 0.00 | 0.00 | 0.00 | 76 | 1006.2 |
| 20260506104601 | 18 | 271 | 0.0 | 9.7 | 0.00 | 0.00 | 0.00 | 76 | 1006.1 |
| 20260506104401 | 18 | 293 | 1.6 | 9.7 | 0.00 | 0.00 | 0.00 | 75 | 1006.0 |
| 20260506104302 | 18 | 212 | 0.0 | 9.7 | 0.00 | 0.00 | 0.00 | 76 | 1006.0 |
| 20260506104101 | 18 | 219 | 1.6 | 6.4 | 0.00 | 0.00 | 0.00 | 76 | 1006.0 |
| 20260506104005 | 18 | 219 | 6.4 | 6.4 | 0.00 | 0.00 | 0.00 | 76 | 1006.0 |
| 20260506103801 | 18 | 219 | 1.6 | 4.8 | 0.00 | 0.00 | 0.00 | 76 | 1006.0 |
| 20260506103701 | 18 | 150 | 1.6 | 4.8 | 0.00 | 0.00 | 0.00 | 76 | 1006.0 |
| 20260506103601 | 18 | 150 | 0.0 | 4.8 | 0.00 | 0.00 | 0.00 | 76 | 1006.0 |
| 20260506103505 | 18 | 150 | 1.6 | 4.8 | 0.00 | 0.00 | 0.00 | 75 | 1005.9 |
| 20260506103400 | 18 | 150 | 0.0 | 4.8 | 0.00 | 0.00 | 0.00 | 75 | 1005.9 |
| 20260506103302 | 18 | 149 | 0.0 | 4.8 | 0.00 | 0.00 | 0.00 | 76 | 1005.9 |
| 20260506102900 | 18 | 129 | 0.0 | 8.0 | 0.00 | 0.00 | 0.00 | 76 | 1005.9 |
| 20260506102801 | 18 | 129 | 0.0 | 8.0 | 0.00 | 0.00 | 0.00 | 76 | 1005.9 |
| 20260506102700 | 18 | 129 | 0.0 | 8.0 | 0.00 | 0.00 | 0.00 | 76 | 1005.9 |
| 20260506102601 | 18 | 129 | 0.0 | 8.0 | 0.00 | 0.00 | 0.00 | 75 | 1005.9 |
| 20260506102401 | 18 | 129 | 0.0 | 8.0 | 0.00 | 0.00 | 0.00 | 75 | 1005.9 |
| 20260506102305 | 18 | 129 | 0.0 | 8.0 | 0.00 | 0.00 | 0.00 | 75 | 1005.8 |
| 20260506102202 | 18 | 129 | 1.6 | 8.0 | 0.00 | 0.00 | 0.00 | 75 | 1005.7 |
| 20260506102100 | 18 | 129 | 3.2 | 8.0 | 0.00 | 0.00 | 0.00 | 75 | 1005.7 |
| 20260506102004 | 18 | 128 | 8.0 | 9.7 | 0.00 | 0.00 | 0.00 | 75 | 1005.7 |
| 20260506101900 | 18 | 207 | 0.0 | 4.8 | 0.00 | 0.00 | 0.00 | 75 | 1005.7 |
| 20260506101801 | 18 | 207 | 0.0 | 4.8 | 0.00 | 0.00 | 0.00 | 75 | 1005.7 |
| 20260506101701 | 18 | 206 | 0.0 | 8.0 | 0.00 | 0.00 | 0.00 | 75 | 1005.7 |
| 20260506101601 | 18 | 207 | 0.0 | 8.0 | 0.00 | 0.00 | 0.00 | 75 | 1005.7 |
| 20260506101505 | 18 | 207 | 0.0 | 8.0 | 0.00 | 0.00 | 0.00 | 74 | 1005.7 |
| 20260506101402 | 18 | 207 | 1.6 | 8.0 | 0.00 | 0.00 | 0.00 | 75 | 1005.8 |
| 20260506101200 | 18 | 206 | 1.6 | 8.0 | 0.00 | 0.00 | 0.00 | 75 | 1005.7 |
| 20260506101004 | 18 | 206 | 1.6 | 8.0 | 0.00 | 0.00 | 0.00 | 75 | 1005.7 |
| 20260506100901 | 18 | 207 | 1.6 | 8.0 | 0.00 | 0.00 | 0.00 | 74 | 1005.7 |
| 20260506100801 | 18 | 205 | 1.6 | 8.0 | 0.00 | 0.00 | 0.00 | 75 | 1005.7 |
| 20260506100701 | 18 | 205 | 4.8 | 8.0 | 0.00 | 0.00 | 0.00 | 74 | 1005.7 |
| 20260506100602 | 18 | 310 | 0.0 | 6.4 | 0.00 | 0.00 | 0.00 | 74 | 1005.7 |
| 20260506100506 | 18 | 311 | 1.6 | 6.4 | 0.00 | 0.00 | 0.00 | 74 | 1005.6 |
| 20260506100400 | 18 | 272 | 3.2 | 3.2 | 0.00 | 0.00 | 0.00 | 74 | 1005.7 |
| 20260506100301 | 18 | 272 | 0.0 | 1.6 | 0.00 | 0.00 | 0.00 | 74 | 1005.7 |
| 20260506095700 | 18 | 271 | 0.0 | 6.4 | 0.00 | 0.00 | 0.00 | 74 | 1005.6 |
| 20260506095601 | 18 | 271 | 0.0 | 6.4 | 0.00 | 0.00 | 0.00 | 74 | 1005.6 |
| 20260506095505 | 18 | 271 | 1.6 | 6.4 | 0.00 | 0.00 | 0.00 | 73 | 1005.6 |
| 20260506095401 | 18 | 271 | 1.6 | 6.4 | 0.00 | 0.00 | 0.00 | 74 | 1005.6 |
| 20260506095201 | 18 | 271 | 0.0 | 6.4 | 0.00 | 0.00 | 0.00 | 73 | 1005.6 |
| 20260506095100 | 18 | 271 | 0.0 | 6.4 | 0.00 | 0.00 | 0.00 | 73 | 1005.6 |
| 20260506095005 | 18 | 44 | 3.2 | 4.8 | 0.00 | 0.00 | 0.00 | 73 | 1005.6 |
| 20260506094900 | 18 | 44 | 0.0 | 4.8 | 0.00 | 0.00 | 0.00 | 73 | 1005.5 |
| 20260506094802 | 18 | 44 | 0.0 | 4.8 | 0.00 | 0.00 | 0.00 | 73 | 1005.5 |
| 20260506094700 | 18 | 44 | 1.6 | 11.3 | 0.00 | 0.00 | 0.00 | 73 | 1005.4 |
| 20260506094601 | 18 | 44 | 0.0 | 16.1 | 0.00 | 0.00 | 0.00 | 73 | 1005.5 |
| 20260506094505 | 18 | 44 | 3.2 | 16.1 | 0.00 | 0.00 | 0.00 | 73 | 1005.5 |
| 20260506094301 | 18 | 265 | 0.0 | 16.1 | 0.00 | 0.00 | 0.00 | 73 | 1005.5 |
| 20260506094202 | 18 | 265 | 1.6 | 16.1 | 0.00 | 0.00 | 0.00 | 72 | 1005.4 |
| 20260506094101 | 18 | 265 | 0.0 | 16.1 | 0.00 | 0.00 | 0.00 | 72 | 1005.4 |
| 20260506093901 | 18 | 265 | 1.6 | 16.1 | 0.00 | 0.00 | 0.00 | 72 | 1005.5 |
| 20260506093802 | 18 | 226 | 3.2 | 16.1 | 0.00 | 0.00 | 0.00 | 72 | 1005.5 |
| 20260506093702 | 18 | 174 | 8.0 | 16.1 | 0.00 | 0.00 | 0.00 | 71 | 1005.5 |
| 20260506093601 | 18 | 173 | 3.2 | 6.4 | 0.00 | 0.00 | 0.00 | 72 | 1005.5 |
| 20260506093400 | 18 | 238 | 1.6 | 6.4 | 0.00 | 0.00 | 0.00 | 72 | 1005.6 |
| 20260506093300 | 18 | 238 | 1.6 | 6.4 | 0.00 | 0.00 | 0.00 | 72 | 1005.5 |
| 20260506093200 | 18 | 238 | 0.0 | 6.4 | 0.00 | 0.00 | 0.00 | 71 | 1005.5 |
| 20260506093100 | 18 | 238 | 3.2 | 6.4 | 0.00 | 0.00 | 0.00 | 71 | 1005.5 |
| 20260506092902 | 18 | 120 | 0.0 | 12.9 | 0.00 | 0.00 | 0.00 | 71 | 1005.6 |
| 20260506092802 | 19 | 120 | 0.0 | 12.9 | 0.00 | 0.00 | 0.00 | 71 | 1005.6 |
| 20260506092701 | 19 | 120 | 1.6 | 12.9 | 0.00 | 0.00 | 0.00 | 71 | 1005.6 |
| 20260506092601 | 19 | 120 | 1.6 | 12.9 | 0.00 | 0.00 | 0.00 | 71 | 1005.7 |
| 20260506092505 | 19 | 195 | 1.6 | 12.9 | 0.00 | 0.00 | 0.00 | 72 | 1005.6 |
| 20260506092401 | 19 | 195 | 0.0 | 12.9 | 0.00 | 0.00 | 0.00 | 71 | 1005.6 |
| 20260506092301 | 19 | 194 | 3.2 | 12.9 | 0.00 | 0.00 | 0.00 | 71 | 1005.7 |
| 20260506092202 | 19 | 194 | 3.2 | 12.9 | 0.00 | 0.00 | 0.00 | 71 | 1005.7 |
| 20260506092100 | 19 | 194 | 3.2 | 12.9 | 0.00 | 0.00 | 0.00 | 71 | 1005.7 |
| 20260506092006 | 19 | 194 | 4.8 | 12.9 | 0.00 | 0.00 | 0.00 | 71 | 1005.8 |
| 20260506091902 | 18 | 224 | 4.8 | 12.9 | 0.00 | 0.00 | 0.00 | 71 | 1005.7 |
| 20260506091801 | 18 | 234 | 1.6 | 12.9 | 0.00 | 0.00 | 0.00 | 71 | 1005.7 |
| 20260506091702 | 18 | 275 | 4.8 | 12.9 | 0.00 | 0.00 | 0.00 | 72 | 1005.8 |
| 20260506091601 | 19 | 224 | 0.0 | 8.0 | 0.00 | 0.00 | 0.00 | 71 | 1005.7 |
| 20260506091506 | 19 | 224 | 0.0 | 8.0 | 0.00 | 0.00 | 0.00 | 71 | 1005.7 |
| 20260506091302 | 19 | 224 | 4.8 | 8.0 | 0.00 | 0.00 | 0.00 | 70 | 1005.7 |
| 20260506091201 | 19 | 290 | 8.0 | 8.0 | 0.00 | 0.00 | 0.00 | 71 | 1005.7 |
| 20260506090801 | 19 | 254 | 3.2 | 11.3 | 0.00 | 0.00 | 0.00 | 71 | 1005.8 |
| 20260506090700 | 19 | 254 | 0.0 | 11.3 | 0.00 | 0.00 | 0.00 | 71 | 1005.9 |
| 20260506090602 | 18 | 259 | 3.2 | 11.3 | 0.00 | 0.00 | 0.00 | 71 | 1005.9 |
| 20260506090505 | 18 | 258 | 1.6 | 11.3 | 0.00 | 0.00 | 0.00 | 71 | 1005.9 |
| 20260506090401 | 18 | 258 | 0.0 | 11.3 | 0.00 | 0.00 | 0.00 | 71 | 1005.8 |
| 20260506090300 | 18 | 258 | 1.6 | 11.3 | 0.00 | 0.00 | 0.00 | 71 | 1005.8 |
| 20260506090200 | 18 | 202 | 0.0 | 11.3 | 0.00 | 0.00 | 0.00 | 71 | 1005.8 |
| 20260506090007 | 18 | 202 | 3.2 | 11.3 | 0.00 | 0.00 | 0.00 | 71 | 1005.9 |
| 20260506085901 | 18 | 202 | 0.0 | 12.9 | 0.00 | 0.00 | 0.00 | 71 | 1006.0 |
| 20260506085801 | 18 | 226 | 0.0 | 4.8 | 0.00 | 0.00 | 0.00 | 71 | 1005.9 |
| 20260506085701 | 18 | 226 | 1.6 | 4.8 | 0.00 | 0.00 | 0.00 | 71 | 1005.9 |
| 20260506085600 | 18 | 226 | 1.6 | 4.8 | 0.00 | 0.00 | 0.00 | 71 | 1005.9 |
| 20260506085505 | 18 | 226 | 3.2 | 4.8 | 0.00 | 0.00 | 0.00 | 72 | 1005.9 |
| 20260506085400 | 18 | 226 | 0.0 | 4.8 | 0.00 | 0.00 | 0.00 | 72 | 1005.9 |
| 20260506085300 | 18 | 226 | 1.6 | 4.8 | 0.00 | 0.00 | 0.00 | 72 | 1005.9 |
| 20260506085200 | 18 | 226 | 3.2 | 4.8 | 0.00 | 0.00 | 0.00 | 71 | 1006.0 |
| 20260506085102 | 18 | 226 | 3.2 | 4.8 | 0.00 | 0.00 | 0.00 | 71 | 1005.9 |
| 20260506085004 | 18 | 178 | 1.6 | 4.8 | 0.00 | 0.00 | 0.00 | 72 | 1005.9 |
| 20260506084901 | 18 | 178 | 1.6 | 8.0 | 0.00 | 0.00 | 0.00 | 71 | 1005.9 |
| 20260506084801 | 18 | 178 | 0.0 | 8.0 | 0.00 | 0.00 | 0.00 | 72 | 1006.0 |
| 20260506084701 | 18 | 178 | 3.2 | 8.0 | 0.00 | 0.00 | 0.00 | 72 | 1006.1 |
| 20260506084507 | 18 | 178 | 0.0 | 8.0 | 0.00 | 0.00 | 0.00 | 72 | 1006.0 |
| 20260506084402 | 18 | 178 | 1.6 | 8.0 | 0.00 | 0.00 | 0.00 | 72 | 1005.9 |
| 20260506084301 | 18 | 178 | 1.6 | 8.0 | 0.00 | 0.00 | 0.00 | 71 | 1005.9 |
| 20260506084201 | 18 | 178 | 0.0 | 8.0 | 0.00 | 0.00 | 0.00 | 71 | 1005.9 |
| 20260506083901 | 18 | 154 | 4.8 | 4.8 | 0.00 | 0.00 | 0.00 | 71 | 1005.9 |
| 20260506083802 | 18 | 281 | 1.6 | 4.8 | 0.00 | 0.00 | 0.00 | 72 | 1006.0 |
| 20260506083701 | 18 | 281 | 3.2 | 3.2 | 0.00 | 0.00 | 0.00 | 72 | 1006.0 |
| 20260506083600 | 18 | 281 | 0.0 | 3.2 | 0.00 | 0.00 | 0.00 | 72 | 1006.0 |
| 20260506083505 | 18 | 281 | 0.0 | 3.2 | 0.00 | 0.00 | 0.00 | 71 | 1005.9 |
| 20260506083401 | 18 | 281 | 1.6 | 4.8 | 0.00 | 0.00 | 0.00 | 71 | 1005.9 |
| 20260506083300 | 18 | 281 | 0.0 | 4.8 | 0.00 | 0.00 | 0.00 | 72 | 1005.9 |
| 20260506083201 | 18 | 281 | 1.6 | 4.8 | 0.00 | 0.00 | 0.00 | 71 | 1005.9 |
| 20260506083100 | 18 | 281 | 1.6 | 4.8 | 0.00 | 0.00 | 0.00 | 71 | 1005.8 |
| 20260506082902 | 18 | 281 | 3.2 | 4.8 | 0.00 | 0.00 | 0.00 | 72 | 1005.9 |
| 20260506082801 | 18 | 281 | 0.0 | 4.8 | 0.00 | 0.00 | 0.00 | 72 | 1005.9 |
| 20260506082701 | 18 | 281 | 0.0 | 4.8 | 0.00 | 0.00 | 0.00 | 71 | 1005.9 |
| 20260506082602 | 18 | 281 | 0.0 | 4.8 | 0.00 | 0.00 | 0.00 | 71 | 1005.9 |
| 20260506082401 | 18 | 228 | 1.6 | 4.8 | 0.00 | 0.00 | 0.00 | 72 | 1005.9 |
| 20260506082304 | 18 | 228 | 4.8 | 4.8 | 0.00 | 0.00 | 0.00 | 72 | 1005.9 |
| 20260506082101 | 18 | 228 | 0.0 | 4.8 | 0.00 | 0.00 | 0.00 | 72 | 1005.9 |
| 20260506082004 | 18 | 228 | 0.0 | 4.8 | 0.00 | 0.00 | 0.00 | 72 | 1005.8 |
| 20260506081801 | 18 | 228 | 0.0 | 4.8 | 0.00 | 0.00 | 0.00 | 72 | 1005.8 |
| 20260506081703 | 18 | 228 | 1.6 | 4.8 | 0.00 | 0.00 | 0.00 | 73 | 1005.7 |
| 20260506081504 | 18 | 225 | 0.0 | 4.8 | 0.00 | 0.00 | 0.00 | 72 | 1005.9 |
| 20260506081400 | 18 | 225 | 1.6 | 4.8 | 0.00 | 0.00 | 0.00 | 71 | 1005.9 |
| 20260506081300 | 18 | 225 | 4.8 | 4.8 | 0.00 | 0.00 | 0.00 | 71 | 1006.0 |
| 20260506081201 | 18 | 223 | 0.0 | 3.2 | 0.00 | 0.00 | 0.00 | 71 | 1005.9 |
| 20260506081101 | 18 | 223 | 0.0 | 3.2 | 0.00 | 0.00 | 0.00 | 71 | 1005.9 |
| 20260506081005 | 18 | 223 | 0.0 | 3.2 | 0.00 | 0.00 | 0.00 | 72 | 1005.9 |
| 20260506080901 | 18 | 223 | 0.0 | 3.2 | 0.00 | 0.00 | 0.00 | 71 | 1005.9 |
| 20260506080801 | 18 | 223 | 1.6 | 3.2 | 0.00 | 0.00 | 0.00 | 71 | 1005.9 |
| 20260506080701 | 18 | 223 | 1.6 | 3.2 | 0.00 | 0.00 | 0.00 | 72 | 1005.9 |
| 20260506080601 | 18 | 223 | 0.0 | 3.2 | 0.00 | 0.00 | 0.00 | 71 | 1005.9 |
| 20260506080504 | 18 | 223 | 1.6 | 3.2 | 0.00 | 0.00 | 0.00 | 72 | 1005.9 |
| 20260506080401 | 18 | 223 | 1.6 | 3.2 | 0.00 | 0.00 | 0.00 | 71 | 1005.9 |
| 20260506080301 | 18 | 223 | 1.6 | 3.2 | 0.00 | 0.00 | 0.00 | 71 | 1005.9 |
| 20260506080201 | 18 | 223 | 0.0 | 3.2 | 0.00 | 0.00 | 0.00 | 70 | 1005.8 |